<?xml version="1.0" encoding="UTF-8" standalone="no" ?>
<gpx xmlns="http://www.topografix.com/GPX/1/1" xmlns:xsi="http://www.w3.org/2001/XMLSchema-instance" xsi:schemaLocation="http://www.topografix.com/GPX/1/1 http://www.topografix.com/GPX/1/1/gpx.xsd" version="1.1" creator="VisuGPX - https://www.visugpx.com">
  <metadata>
    <name>STE BAUME</name>
    <desc><![CDATA[Difficulté moyenne,falaises de Cugens,magnifiques.
Retour par le vallon de Betton très reposant. ]]></desc>
  </metadata>
  <trk>
    <name><![CDATA[2013-05-22-01]]></name>
    <trkseg>
      <trkpt lat="43.32387" lon="5.70726">
        <ele>698</ele>
        <time>2013-05-22T06:54:27Z</time>
      </trkpt>
      <trkpt lat="43.32387" lon="5.70726">
        <ele>697.7</ele>
        <time>2013-05-22T06:54:28Z</time>
      </trkpt>
      <trkpt lat="43.32384" lon="5.70714">
        <ele>693.7</ele>
        <time>2013-05-22T06:59:02Z</time>
      </trkpt>
      <trkpt lat="43.32376" lon="5.70694">
        <ele>691</ele>
        <time>2013-05-22T06:59:28Z</time>
      </trkpt>
      <trkpt lat="43.32371" lon="5.70684">
        <ele>691.4</ele>
        <time>2013-05-22T06:59:39Z</time>
      </trkpt>
      <trkpt lat="43.32366" lon="5.70674">
        <ele>690.5</ele>
        <time>2013-05-22T06:59:48Z</time>
      </trkpt>
      <trkpt lat="43.32361" lon="5.70665">
        <ele>694.5</ele>
        <time>2013-05-22T07:00:19Z</time>
      </trkpt>
      <trkpt lat="43.3236" lon="5.70664">
        <ele>694.2</ele>
        <time>2013-05-22T07:00:20Z</time>
      </trkpt>
      <trkpt lat="43.32353" lon="5.70644">
        <ele>692.4</ele>
        <time>2013-05-22T07:00:44Z</time>
      </trkpt>
      <trkpt lat="43.32351" lon="5.70632">
        <ele>691</ele>
        <time>2013-05-22T07:01:00Z</time>
      </trkpt>
      <trkpt lat="43.32347" lon="5.70622">
        <ele>690.9</ele>
        <time>2013-05-22T07:01:11Z</time>
      </trkpt>
      <trkpt lat="43.32342" lon="5.70613">
        <ele>689.2</ele>
        <time>2013-05-22T07:01:20Z</time>
      </trkpt>
      <trkpt lat="43.32341" lon="5.70612">
        <ele>688.5</ele>
        <time>2013-05-22T07:01:21Z</time>
      </trkpt>
      <trkpt lat="43.32333" lon="5.70594">
        <ele>682</ele>
        <time>2013-05-22T07:01:38Z</time>
      </trkpt>
      <trkpt lat="43.32332" lon="5.70581">
        <ele>682.5</ele>
        <time>2013-05-22T07:01:48Z</time>
      </trkpt>
      <trkpt lat="43.32332" lon="5.70569">
        <ele>692.2</ele>
        <time>2013-05-22T07:02:00Z</time>
      </trkpt>
      <trkpt lat="43.32329" lon="5.70559">
        <ele>690.2</ele>
        <time>2013-05-22T07:02:09Z</time>
      </trkpt>
      <trkpt lat="43.32324" lon="5.7055">
        <ele>684.7</ele>
        <time>2013-05-22T07:02:17Z</time>
      </trkpt>
      <trkpt lat="43.32318" lon="5.70544">
        <ele>685.7</ele>
        <time>2013-05-22T07:02:25Z</time>
      </trkpt>
      <trkpt lat="43.32317" lon="5.70543">
        <ele>685.2</ele>
        <time>2013-05-22T07:02:26Z</time>
      </trkpt>
      <trkpt lat="43.32312" lon="5.70523">
        <ele>685.7</ele>
        <time>2013-05-22T07:02:46Z</time>
      </trkpt>
      <trkpt lat="43.32308" lon="5.70512">
        <ele>684</ele>
        <time>2013-05-22T07:02:55Z</time>
      </trkpt>
      <trkpt lat="43.32304" lon="5.70503">
        <ele>687.2</ele>
        <time>2013-05-22T07:03:04Z</time>
      </trkpt>
      <trkpt lat="43.32299" lon="5.70494">
        <ele>689.2</ele>
        <time>2013-05-22T07:03:11Z</time>
      </trkpt>
      <trkpt lat="43.32293" lon="5.70485">
        <ele>689</ele>
        <time>2013-05-22T07:03:19Z</time>
      </trkpt>
      <trkpt lat="43.32287" lon="5.70477">
        <ele>687.9</ele>
        <time>2013-05-22T07:03:31Z</time>
      </trkpt>
      <trkpt lat="43.32286" lon="5.70476">
        <ele>688</ele>
        <time>2013-05-22T07:03:32Z</time>
      </trkpt>
      <trkpt lat="43.32284" lon="5.70455">
        <ele>692.5</ele>
        <time>2013-05-22T07:03:51Z</time>
      </trkpt>
      <trkpt lat="43.32282" lon="5.70443">
        <ele>693</ele>
        <time>2013-05-22T07:04:00Z</time>
      </trkpt>
      <trkpt lat="43.32281" lon="5.70431">
        <ele>693</ele>
        <time>2013-05-22T07:04:09Z</time>
      </trkpt>
      <trkpt lat="43.3228" lon="5.7042">
        <ele>688.5</ele>
        <time>2013-05-22T07:04:19Z</time>
      </trkpt>
      <trkpt lat="43.32283" lon="5.70408">
        <ele>691.2</ele>
        <time>2013-05-22T07:04:28Z</time>
      </trkpt>
      <trkpt lat="43.32283" lon="5.70396">
        <ele>693.4</ele>
        <time>2013-05-22T07:04:37Z</time>
      </trkpt>
      <trkpt lat="43.32283" lon="5.70395">
        <ele>693.5</ele>
        <time>2013-05-22T07:04:38Z</time>
      </trkpt>
      <trkpt lat="43.32284" lon="5.70374">
        <ele>693.2</ele>
        <time>2013-05-22T07:04:57Z</time>
      </trkpt>
      <trkpt lat="43.32281" lon="5.70363">
        <ele>694.5</ele>
        <time>2013-05-22T07:05:04Z</time>
      </trkpt>
      <trkpt lat="43.32276" lon="5.70353">
        <ele>698.7</ele>
        <time>2013-05-22T07:05:11Z</time>
      </trkpt>
      <trkpt lat="43.32271" lon="5.70344">
        <ele>702</ele>
        <time>2013-05-22T07:05:18Z</time>
      </trkpt>
      <trkpt lat="43.32265" lon="5.70335">
        <ele>702.4</ele>
        <time>2013-05-22T07:05:27Z</time>
      </trkpt>
      <trkpt lat="43.32259" lon="5.70326">
        <ele>698.4</ele>
        <time>2013-05-22T07:05:37Z</time>
      </trkpt>
      <trkpt lat="43.32254" lon="5.70317">
        <ele>700.7</ele>
        <time>2013-05-22T07:05:46Z</time>
      </trkpt>
      <trkpt lat="43.32254" lon="5.70316">
        <ele>701</ele>
        <time>2013-05-22T07:05:47Z</time>
      </trkpt>
      <trkpt lat="43.32247" lon="5.70297">
        <ele>700.2</ele>
        <time>2013-05-22T07:06:02Z</time>
      </trkpt>
      <trkpt lat="43.32242" lon="5.70287">
        <ele>698</ele>
        <time>2013-05-22T07:06:15Z</time>
      </trkpt>
      <trkpt lat="43.32237" lon="5.70279">
        <ele>695</ele>
        <time>2013-05-22T07:06:24Z</time>
      </trkpt>
      <trkpt lat="43.32231" lon="5.7027">
        <ele>694</ele>
        <time>2013-05-22T07:06:33Z</time>
      </trkpt>
      <trkpt lat="43.32225" lon="5.70263">
        <ele>693.7</ele>
        <time>2013-05-22T07:06:41Z</time>
      </trkpt>
      <trkpt lat="43.32218" lon="5.70256">
        <ele>694.4</ele>
        <time>2013-05-22T07:06:49Z</time>
      </trkpt>
      <trkpt lat="43.32217" lon="5.70254">
        <ele>694.7</ele>
        <time>2013-05-22T07:06:50Z</time>
      </trkpt>
      <trkpt lat="43.32207" lon="5.70239">
        <ele>693.4</ele>
        <time>2013-05-22T07:07:03Z</time>
      </trkpt>
      <trkpt lat="43.32201" lon="5.70231">
        <ele>693.4</ele>
        <time>2013-05-22T07:07:09Z</time>
      </trkpt>
      <trkpt lat="43.32195" lon="5.70222">
        <ele>694.7</ele>
        <time>2013-05-22T07:07:17Z</time>
      </trkpt>
      <trkpt lat="43.3219" lon="5.70214">
        <ele>696.7</ele>
        <time>2013-05-22T07:07:25Z</time>
      </trkpt>
      <trkpt lat="43.32185" lon="5.70205">
        <ele>696.7</ele>
        <time>2013-05-22T07:07:32Z</time>
      </trkpt>
      <trkpt lat="43.32179" lon="5.70197">
        <ele>697.5</ele>
        <time>2013-05-22T07:07:40Z</time>
      </trkpt>
      <trkpt lat="43.32174" lon="5.70188">
        <ele>697.9</ele>
        <time>2013-05-22T07:07:47Z</time>
      </trkpt>
      <trkpt lat="43.32168" lon="5.70181">
        <ele>696.9</ele>
        <time>2013-05-22T07:07:55Z</time>
      </trkpt>
      <trkpt lat="43.32167" lon="5.7018">
        <ele>696.7</ele>
        <time>2013-05-22T07:07:56Z</time>
      </trkpt>
      <trkpt lat="43.32158" lon="5.70162">
        <ele>696</ele>
        <time>2013-05-22T07:08:15Z</time>
      </trkpt>
      <trkpt lat="43.3215" lon="5.70156">
        <ele>694.5</ele>
        <time>2013-05-22T07:08:38Z</time>
      </trkpt>
      <trkpt lat="43.32145" lon="5.70147">
        <ele>693.4</ele>
        <time>2013-05-22T07:08:47Z</time>
      </trkpt>
      <trkpt lat="43.3214" lon="5.70136">
        <ele>693.2</ele>
        <time>2013-05-22T07:08:56Z</time>
      </trkpt>
      <trkpt lat="43.3214" lon="5.70136">
        <ele>693.4</ele>
        <time>2013-05-22T07:08:57Z</time>
      </trkpt>
      <trkpt lat="43.32126" lon="5.70122">
        <ele>691</ele>
        <time>2013-05-22T07:09:10Z</time>
      </trkpt>
      <trkpt lat="43.32118" lon="5.70116">
        <ele>694</ele>
        <time>2013-05-22T07:09:17Z</time>
      </trkpt>
      <trkpt lat="43.32113" lon="5.70109">
        <ele>699.7</ele>
        <time>2013-05-22T07:09:24Z</time>
      </trkpt>
      <trkpt lat="43.32105" lon="5.70103">
        <ele>697.9</ele>
        <time>2013-05-22T07:09:32Z</time>
      </trkpt>
      <trkpt lat="43.321" lon="5.70093">
        <ele>699.7</ele>
        <time>2013-05-22T07:09:41Z</time>
      </trkpt>
      <trkpt lat="43.32096" lon="5.70082">
        <ele>705.5</ele>
        <time>2013-05-22T07:10:06Z</time>
      </trkpt>
      <trkpt lat="43.32096" lon="5.70081">
        <ele>705</ele>
        <time>2013-05-22T07:10:07Z</time>
      </trkpt>
      <trkpt lat="43.32094" lon="5.70059">
        <ele>697.2</ele>
        <time>2013-05-22T07:10:36Z</time>
      </trkpt>
      <trkpt lat="43.32096" lon="5.70047">
        <ele>699.5</ele>
        <time>2013-05-22T07:10:49Z</time>
      </trkpt>
      <trkpt lat="43.32101" lon="5.70037">
        <ele>708</ele>
        <time>2013-05-22T07:11:00Z</time>
      </trkpt>
      <trkpt lat="43.32107" lon="5.70029">
        <ele>712.4</ele>
        <time>2013-05-22T07:11:09Z</time>
      </trkpt>
      <trkpt lat="43.32108" lon="5.70028">
        <ele>713.4</ele>
        <time>2013-05-22T07:11:10Z</time>
      </trkpt>
      <trkpt lat="43.32115" lon="5.70012">
        <ele>717</ele>
        <time>2013-05-22T07:11:45Z</time>
      </trkpt>
      <trkpt lat="43.32108" lon="5.70003">
        <ele>714</ele>
        <time>2013-05-22T07:12:08Z</time>
      </trkpt>
      <trkpt lat="43.32103" lon="5.69994">
        <ele>713.7</ele>
        <time>2013-05-22T07:12:22Z</time>
      </trkpt>
      <trkpt lat="43.32103" lon="5.69993">
        <ele>714</ele>
        <time>2013-05-22T07:12:23Z</time>
      </trkpt>
      <trkpt lat="43.3209" lon="5.69978">
        <ele>711.9</ele>
        <time>2013-05-22T07:12:43Z</time>
      </trkpt>
      <trkpt lat="43.32085" lon="5.69968">
        <ele>708.2</ele>
        <time>2013-05-22T07:12:54Z</time>
      </trkpt>
      <trkpt lat="43.32079" lon="5.69958">
        <ele>712.5</ele>
        <time>2013-05-22T07:13:04Z</time>
      </trkpt>
      <trkpt lat="43.32073" lon="5.6995">
        <ele>717.2</ele>
        <time>2013-05-22T07:13:15Z</time>
      </trkpt>
      <trkpt lat="43.32067" lon="5.69942">
        <ele>715.7</ele>
        <time>2013-05-22T07:13:27Z</time>
      </trkpt>
      <trkpt lat="43.32066" lon="5.69941">
        <ele>715.5</ele>
        <time>2013-05-22T07:13:28Z</time>
      </trkpt>
      <trkpt lat="43.32054" lon="5.69927">
        <ele>720.2</ele>
        <time>2013-05-22T07:13:45Z</time>
      </trkpt>
      <trkpt lat="43.32047" lon="5.6992">
        <ele>721.7</ele>
        <time>2013-05-22T07:13:55Z</time>
      </trkpt>
      <trkpt lat="43.32041" lon="5.69912">
        <ele>728.7</ele>
        <time>2013-05-22T07:14:07Z</time>
      </trkpt>
      <trkpt lat="43.32035" lon="5.69904">
        <ele>725.4</ele>
        <time>2013-05-22T07:14:17Z</time>
      </trkpt>
      <trkpt lat="43.32029" lon="5.69895">
        <ele>726.7</ele>
        <time>2013-05-22T07:14:28Z</time>
      </trkpt>
      <trkpt lat="43.32029" lon="5.69894">
        <ele>726.5</ele>
        <time>2013-05-22T07:14:29Z</time>
      </trkpt>
      <trkpt lat="43.32017" lon="5.69878">
        <ele>726</ele>
        <time>2013-05-22T07:14:50Z</time>
      </trkpt>
      <trkpt lat="43.3201" lon="5.6987">
        <ele>723.5</ele>
        <time>2013-05-22T07:15:01Z</time>
      </trkpt>
      <trkpt lat="43.32005" lon="5.69861">
        <ele>722.5</ele>
        <time>2013-05-22T07:15:10Z</time>
      </trkpt>
      <trkpt lat="43.31999" lon="5.69853">
        <ele>722.5</ele>
        <time>2013-05-22T07:15:20Z</time>
      </trkpt>
      <trkpt lat="43.31992" lon="5.69848">
        <ele>721</ele>
        <time>2013-05-22T07:15:28Z</time>
      </trkpt>
      <trkpt lat="43.31987" lon="5.69839">
        <ele>723.5</ele>
        <time>2013-05-22T07:15:38Z</time>
      </trkpt>
      <trkpt lat="43.31987" lon="5.69838">
        <ele>722.7</ele>
        <time>2013-05-22T07:15:39Z</time>
      </trkpt>
      <trkpt lat="43.3198" lon="5.69818">
        <ele>724.7</ele>
        <time>2013-05-22T07:16:01Z</time>
      </trkpt>
      <trkpt lat="43.31973" lon="5.69811">
        <ele>728.9</ele>
        <time>2013-05-22T07:16:10Z</time>
      </trkpt>
      <trkpt lat="43.31967" lon="5.69803">
        <ele>735.5</ele>
        <time>2013-05-22T07:16:20Z</time>
      </trkpt>
      <trkpt lat="43.3196" lon="5.69795">
        <ele>740.7</ele>
        <time>2013-05-22T07:16:30Z</time>
      </trkpt>
      <trkpt lat="43.31954" lon="5.69786">
        <ele>735.5</ele>
        <time>2013-05-22T07:16:41Z</time>
      </trkpt>
      <trkpt lat="43.31954" lon="5.69785">
        <ele>736</ele>
        <time>2013-05-22T07:16:42Z</time>
      </trkpt>
      <trkpt lat="43.31945" lon="5.69766">
        <ele>740.9</ele>
        <time>2013-05-22T07:17:02Z</time>
      </trkpt>
      <trkpt lat="43.31937" lon="5.6976">
        <ele>741.4</ele>
        <time>2013-05-22T07:17:12Z</time>
      </trkpt>
      <trkpt lat="43.3193" lon="5.69753">
        <ele>734.4</ele>
        <time>2013-05-22T07:17:21Z</time>
      </trkpt>
      <trkpt lat="43.31924" lon="5.69745">
        <ele>731</ele>
        <time>2013-05-22T07:17:30Z</time>
      </trkpt>
      <trkpt lat="43.31918" lon="5.69736">
        <ele>729.5</ele>
        <time>2013-05-22T07:17:39Z</time>
      </trkpt>
      <trkpt lat="43.31914" lon="5.69727">
        <ele>737</ele>
        <time>2013-05-22T07:17:49Z</time>
      </trkpt>
      <trkpt lat="43.31913" lon="5.69725">
        <ele>737.2</ele>
        <time>2013-05-22T07:17:50Z</time>
      </trkpt>
      <trkpt lat="43.31904" lon="5.69708">
        <ele>743.4</ele>
        <time>2013-05-22T07:18:11Z</time>
      </trkpt>
      <trkpt lat="43.319" lon="5.69698">
        <ele>747</ele>
        <time>2013-05-22T07:18:22Z</time>
      </trkpt>
      <trkpt lat="43.31894" lon="5.69689">
        <ele>746.5</ele>
        <time>2013-05-22T07:18:32Z</time>
      </trkpt>
      <trkpt lat="43.3189" lon="5.69679">
        <ele>751.5</ele>
        <time>2013-05-22T07:18:42Z</time>
      </trkpt>
      <trkpt lat="43.31887" lon="5.69668">
        <ele>750</ele>
        <time>2013-05-22T07:18:52Z</time>
      </trkpt>
      <trkpt lat="43.31887" lon="5.69667">
        <ele>749.7</ele>
        <time>2013-05-22T07:18:53Z</time>
      </trkpt>
      <trkpt lat="43.31879" lon="5.69647">
        <ele>756.7</ele>
        <time>2013-05-22T07:19:08Z</time>
      </trkpt>
      <trkpt lat="43.31873" lon="5.69639">
        <ele>755.2</ele>
        <time>2013-05-22T07:19:18Z</time>
      </trkpt>
      <trkpt lat="43.31869" lon="5.69628">
        <ele>757.2</ele>
        <time>2013-05-22T07:19:28Z</time>
      </trkpt>
      <trkpt lat="43.31865" lon="5.69618">
        <ele>755.9</ele>
        <time>2013-05-22T07:19:39Z</time>
      </trkpt>
      <trkpt lat="43.3186" lon="5.69609">
        <ele>757.7</ele>
        <time>2013-05-22T07:19:50Z</time>
      </trkpt>
      <trkpt lat="43.31855" lon="5.69599">
        <ele>755</ele>
        <time>2013-05-22T07:20:01Z</time>
      </trkpt>
      <trkpt lat="43.31855" lon="5.69598">
        <ele>755.7</ele>
        <time>2013-05-22T07:20:02Z</time>
      </trkpt>
      <trkpt lat="43.31847" lon="5.69578">
        <ele>760.7</ele>
        <time>2013-05-22T07:20:20Z</time>
      </trkpt>
      <trkpt lat="43.31841" lon="5.69569">
        <ele>766</ele>
        <time>2013-05-22T07:20:30Z</time>
      </trkpt>
      <trkpt lat="43.31836" lon="5.6956">
        <ele>761.4</ele>
        <time>2013-05-22T07:20:40Z</time>
      </trkpt>
      <trkpt lat="43.31831" lon="5.6955">
        <ele>761.7</ele>
        <time>2013-05-22T07:20:51Z</time>
      </trkpt>
      <trkpt lat="43.31826" lon="5.6954">
        <ele>759.7</ele>
        <time>2013-05-22T07:21:00Z</time>
      </trkpt>
      <trkpt lat="43.31824" lon="5.69529">
        <ele>756.9</ele>
        <time>2013-05-22T07:21:11Z</time>
      </trkpt>
      <trkpt lat="43.31823" lon="5.69528">
        <ele>758.4</ele>
        <time>2013-05-22T07:21:12Z</time>
      </trkpt>
      <trkpt lat="43.31814" lon="5.6951">
        <ele>764.2</ele>
        <time>2013-05-22T07:21:29Z</time>
      </trkpt>
      <trkpt lat="43.31808" lon="5.69502">
        <ele>781.7</ele>
        <time>2013-05-22T07:23:42Z</time>
      </trkpt>
      <trkpt lat="43.31808" lon="5.69501">
        <ele>782</ele>
        <time>2013-05-22T07:23:43Z</time>
      </trkpt>
      <trkpt lat="43.31797" lon="5.69483">
        <ele>780</ele>
        <time>2013-05-22T07:24:45Z</time>
      </trkpt>
      <trkpt lat="43.31796" lon="5.69482">
        <ele>779.7</ele>
        <time>2013-05-22T07:24:46Z</time>
      </trkpt>
      <trkpt lat="43.31788" lon="5.69463">
        <ele>779.2</ele>
        <time>2013-05-22T07:25:28Z</time>
      </trkpt>
      <trkpt lat="43.31787" lon="5.69452">
        <ele>780</ele>
        <time>2013-05-22T07:25:37Z</time>
      </trkpt>
      <trkpt lat="43.31781" lon="5.69444">
        <ele>784.5</ele>
        <time>2013-05-22T07:25:50Z</time>
      </trkpt>
      <trkpt lat="43.31781" lon="5.69443">
        <ele>784.4</ele>
        <time>2013-05-22T07:25:51Z</time>
      </trkpt>
      <trkpt lat="43.3177" lon="5.69426">
        <ele>782.2</ele>
        <time>2013-05-22T07:26:10Z</time>
      </trkpt>
      <trkpt lat="43.31768" lon="5.69415">
        <ele>786.2</ele>
        <time>2013-05-22T07:26:24Z</time>
      </trkpt>
      <trkpt lat="43.31763" lon="5.69405">
        <ele>785.7</ele>
        <time>2013-05-22T07:26:33Z</time>
      </trkpt>
      <trkpt lat="43.31757" lon="5.69398">
        <ele>784.5</ele>
        <time>2013-05-22T07:26:41Z</time>
      </trkpt>
      <trkpt lat="43.31752" lon="5.69388">
        <ele>784.7</ele>
        <time>2013-05-22T07:26:51Z</time>
      </trkpt>
      <trkpt lat="43.31751" lon="5.69387">
        <ele>785</ele>
        <time>2013-05-22T07:26:52Z</time>
      </trkpt>
      <trkpt lat="43.31742" lon="5.69369">
        <ele>787.2</ele>
        <time>2013-05-22T07:27:12Z</time>
      </trkpt>
      <trkpt lat="43.31738" lon="5.69358">
        <ele>790.2</ele>
        <time>2013-05-22T07:27:24Z</time>
      </trkpt>
      <trkpt lat="43.31736" lon="5.69346">
        <ele>791.9</ele>
        <time>2013-05-22T07:27:37Z</time>
      </trkpt>
      <trkpt lat="43.31731" lon="5.69335">
        <ele>790</ele>
        <time>2013-05-22T07:27:51Z</time>
      </trkpt>
      <trkpt lat="43.31727" lon="5.69324">
        <ele>791.5</ele>
        <time>2013-05-22T07:28:03Z</time>
      </trkpt>
      <trkpt lat="43.31726" lon="5.69324">
        <ele>791.7</ele>
        <time>2013-05-22T07:28:04Z</time>
      </trkpt>
      <trkpt lat="43.31717" lon="5.69305">
        <ele>791.2</ele>
        <time>2013-05-22T07:28:31Z</time>
      </trkpt>
      <trkpt lat="43.31711" lon="5.69297">
        <ele>792.2</ele>
        <time>2013-05-22T07:28:42Z</time>
      </trkpt>
      <trkpt lat="43.31707" lon="5.69286">
        <ele>795.7</ele>
        <time>2013-05-22T07:28:56Z</time>
      </trkpt>
      <trkpt lat="43.31702" lon="5.69277">
        <ele>799.2</ele>
        <time>2013-05-22T07:29:06Z</time>
      </trkpt>
      <trkpt lat="43.31702" lon="5.69276">
        <ele>799.7</ele>
        <time>2013-05-22T07:29:07Z</time>
      </trkpt>
      <trkpt lat="43.31693" lon="5.69257">
        <ele>803.5</ele>
        <time>2013-05-22T07:29:29Z</time>
      </trkpt>
      <trkpt lat="43.31687" lon="5.69248">
        <ele>805.9</ele>
        <time>2013-05-22T07:29:48Z</time>
      </trkpt>
      <trkpt lat="43.31684" lon="5.69237">
        <ele>811.9</ele>
        <time>2013-05-22T07:30:11Z</time>
      </trkpt>
      <trkpt lat="43.31683" lon="5.69237">
        <ele>812</ele>
        <time>2013-05-22T07:30:12Z</time>
      </trkpt>
      <trkpt lat="43.31673" lon="5.69218">
        <ele>815.7</ele>
        <time>2013-05-22T07:30:45Z</time>
      </trkpt>
      <trkpt lat="43.31669" lon="5.69208">
        <ele>816.4</ele>
        <time>2013-05-22T07:31:01Z</time>
      </trkpt>
      <trkpt lat="43.31665" lon="5.69198">
        <ele>817.9</ele>
        <time>2013-05-22T07:31:19Z</time>
      </trkpt>
      <trkpt lat="43.31665" lon="5.69197">
        <ele>818.5</ele>
        <time>2013-05-22T07:31:20Z</time>
      </trkpt>
      <trkpt lat="43.31656" lon="5.69177">
        <ele>819.2</ele>
        <time>2013-05-22T07:31:50Z</time>
      </trkpt>
      <trkpt lat="43.31651" lon="5.69168">
        <ele>824.2</ele>
        <time>2013-05-22T07:32:10Z</time>
      </trkpt>
      <trkpt lat="43.31646" lon="5.69157">
        <ele>824.7</ele>
        <time>2013-05-22T07:32:25Z</time>
      </trkpt>
      <trkpt lat="43.31646" lon="5.69157">
        <ele>824.9</ele>
        <time>2013-05-22T07:32:26Z</time>
      </trkpt>
      <trkpt lat="43.31639" lon="5.69136">
        <ele>829</ele>
        <time>2013-05-22T07:32:58Z</time>
      </trkpt>
      <trkpt lat="43.31635" lon="5.69125">
        <ele>832</ele>
        <time>2013-05-22T07:33:13Z</time>
      </trkpt>
      <trkpt lat="43.31629" lon="5.69118">
        <ele>833.2</ele>
        <time>2013-05-22T07:33:26Z</time>
      </trkpt>
      <trkpt lat="43.31628" lon="5.69118">
        <ele>833.7</ele>
        <time>2013-05-22T07:33:27Z</time>
      </trkpt>
      <trkpt lat="43.31619" lon="5.69098">
        <ele>837.9</ele>
        <time>2013-05-22T07:34:08Z</time>
      </trkpt>
      <trkpt lat="43.31614" lon="5.69088">
        <ele>839</ele>
        <time>2013-05-22T07:34:23Z</time>
      </trkpt>
      <trkpt lat="43.3161" lon="5.69078">
        <ele>841.5</ele>
        <time>2013-05-22T07:34:39Z</time>
      </trkpt>
      <trkpt lat="43.31609" lon="5.69078">
        <ele>841.7</ele>
        <time>2013-05-22T07:34:40Z</time>
      </trkpt>
      <trkpt lat="43.31601" lon="5.69058">
        <ele>847.4</ele>
        <time>2013-05-22T07:35:10Z</time>
      </trkpt>
      <trkpt lat="43.31595" lon="5.69049">
        <ele>850.2</ele>
        <time>2013-05-22T07:35:25Z</time>
      </trkpt>
      <trkpt lat="43.31591" lon="5.69039">
        <ele>853.2</ele>
        <time>2013-05-22T07:35:52Z</time>
      </trkpt>
      <trkpt lat="43.3159" lon="5.69039">
        <ele>853.2</ele>
        <time>2013-05-22T07:35:53Z</time>
      </trkpt>
      <trkpt lat="43.31583" lon="5.69017">
        <ele>857</ele>
        <time>2013-05-22T07:36:30Z</time>
      </trkpt>
      <trkpt lat="43.31578" lon="5.69008">
        <ele>856</ele>
        <time>2013-05-22T07:36:43Z</time>
      </trkpt>
      <trkpt lat="43.31572" lon="5.68999">
        <ele>853.7</ele>
        <time>2013-05-22T07:36:58Z</time>
      </trkpt>
      <trkpt lat="43.31571" lon="5.68998">
        <ele>853.9</ele>
        <time>2013-05-22T07:36:59Z</time>
      </trkpt>
      <trkpt lat="43.31561" lon="5.68982">
        <ele>852.4</ele>
        <time>2013-05-22T07:37:24Z</time>
      </trkpt>
      <trkpt lat="43.31558" lon="5.68971">
        <ele>863.9</ele>
        <time>2013-05-22T07:38:05Z</time>
      </trkpt>
      <trkpt lat="43.31557" lon="5.6897">
        <ele>863.5</ele>
        <time>2013-05-22T07:38:06Z</time>
      </trkpt>
      <trkpt lat="43.31552" lon="5.6896">
        <ele>865.7</ele>
        <time>2013-05-22T07:44:14Z</time>
      </trkpt>
      <trkpt lat="43.31543" lon="5.68961">
        <ele>868.2</ele>
        <time>2013-05-22T07:45:45Z</time>
      </trkpt>
      <trkpt lat="43.31527" lon="5.68957">
        <ele>869.2</ele>
        <time>2013-05-22T07:46:04Z</time>
      </trkpt>
      <trkpt lat="43.31521" lon="5.6895">
        <ele>869.9</ele>
        <time>2013-05-22T07:46:16Z</time>
      </trkpt>
      <trkpt lat="43.31512" lon="5.68947">
        <ele>867.9</ele>
        <time>2013-05-22T07:46:28Z</time>
      </trkpt>
      <trkpt lat="43.31505" lon="5.68954">
        <ele>866.5</ele>
        <time>2013-05-22T07:46:43Z</time>
      </trkpt>
      <trkpt lat="43.31497" lon="5.68949">
        <ele>869</ele>
        <time>2013-05-22T07:47:31Z</time>
      </trkpt>
      <trkpt lat="43.31496" lon="5.68949">
        <ele>869</ele>
        <time>2013-05-22T07:47:32Z</time>
      </trkpt>
      <trkpt lat="43.3148" lon="5.6894">
        <ele>861.7</ele>
        <time>2013-05-22T07:47:56Z</time>
      </trkpt>
      <trkpt lat="43.31472" lon="5.68936">
        <ele>863</ele>
        <time>2013-05-22T07:48:05Z</time>
      </trkpt>
      <trkpt lat="43.31464" lon="5.68931">
        <ele>858.5</ele>
        <time>2013-05-22T07:48:18Z</time>
      </trkpt>
      <trkpt lat="43.31459" lon="5.68922">
        <ele>864.7</ele>
        <time>2013-05-22T07:48:42Z</time>
      </trkpt>
      <trkpt lat="43.31458" lon="5.68922">
        <ele>865.2</ele>
        <time>2013-05-22T07:48:43Z</time>
      </trkpt>
      <trkpt lat="43.31443" lon="5.68913">
        <ele>861.7</ele>
        <time>2013-05-22T07:49:05Z</time>
      </trkpt>
      <trkpt lat="43.31435" lon="5.68908">
        <ele>859.5</ele>
        <time>2013-05-22T07:49:18Z</time>
      </trkpt>
      <trkpt lat="43.31426" lon="5.68906">
        <ele>858.2</ele>
        <time>2013-05-22T07:49:28Z</time>
      </trkpt>
      <trkpt lat="43.31418" lon="5.68902">
        <ele>854.5</ele>
        <time>2013-05-22T07:49:40Z</time>
      </trkpt>
      <trkpt lat="43.3141" lon="5.68897">
        <ele>853</ele>
        <time>2013-05-22T07:49:51Z</time>
      </trkpt>
      <trkpt lat="43.3141" lon="5.68896">
        <ele>852.9</ele>
        <time>2013-05-22T07:49:52Z</time>
      </trkpt>
      <trkpt lat="43.31397" lon="5.68881">
        <ele>851.7</ele>
        <time>2013-05-22T07:50:13Z</time>
      </trkpt>
      <trkpt lat="43.31392" lon="5.68872">
        <ele>850.7</ele>
        <time>2013-05-22T07:50:24Z</time>
      </trkpt>
      <trkpt lat="43.31389" lon="5.68861">
        <ele>850.7</ele>
        <time>2013-05-22T07:50:34Z</time>
      </trkpt>
      <trkpt lat="43.31383" lon="5.68853">
        <ele>849.5</ele>
        <time>2013-05-22T07:50:45Z</time>
      </trkpt>
      <trkpt lat="43.31376" lon="5.68846">
        <ele>848.2</ele>
        <time>2013-05-22T07:50:56Z</time>
      </trkpt>
      <trkpt lat="43.31375" lon="5.68846">
        <ele>847.7</ele>
        <time>2013-05-22T07:50:57Z</time>
      </trkpt>
      <trkpt lat="43.31363" lon="5.6883">
        <ele>848.5</ele>
        <time>2013-05-22T07:51:56Z</time>
      </trkpt>
      <trkpt lat="43.31355" lon="5.6883">
        <ele>848.7</ele>
        <time>2013-05-22T07:52:49Z</time>
      </trkpt>
      <trkpt lat="43.31354" lon="5.6883">
        <ele>848.4</ele>
        <time>2013-05-22T07:52:50Z</time>
      </trkpt>
      <trkpt lat="43.31339" lon="5.68821">
        <ele>841</ele>
        <time>2013-05-22T07:53:22Z</time>
      </trkpt>
      <trkpt lat="43.31332" lon="5.68814">
        <ele>839.4</ele>
        <time>2013-05-22T07:53:31Z</time>
      </trkpt>
      <trkpt lat="43.31327" lon="5.68806">
        <ele>837.4</ele>
        <time>2013-05-22T07:53:39Z</time>
      </trkpt>
      <trkpt lat="43.31321" lon="5.68798">
        <ele>833.7</ele>
        <time>2013-05-22T07:53:51Z</time>
      </trkpt>
      <trkpt lat="43.3132" lon="5.68796">
        <ele>833.7</ele>
        <time>2013-05-22T07:53:52Z</time>
      </trkpt>
      <trkpt lat="43.31309" lon="5.6878">
        <ele>831.2</ele>
        <time>2013-05-22T07:54:16Z</time>
      </trkpt>
      <trkpt lat="43.31302" lon="5.68775">
        <ele>825</ele>
        <time>2013-05-22T07:54:31Z</time>
      </trkpt>
      <trkpt lat="43.31294" lon="5.68769">
        <ele>815.9</ele>
        <time>2013-05-22T07:54:49Z</time>
      </trkpt>
      <trkpt lat="43.31286" lon="5.68763">
        <ele>812</ele>
        <time>2013-05-22T07:55:02Z</time>
      </trkpt>
      <trkpt lat="43.31286" lon="5.68763">
        <ele>812.2</ele>
        <time>2013-05-22T07:55:03Z</time>
      </trkpt>
      <trkpt lat="43.31274" lon="5.68749">
        <ele>815.5</ele>
        <time>2013-05-22T07:55:16Z</time>
      </trkpt>
      <trkpt lat="43.31267" lon="5.68741">
        <ele>818</ele>
        <time>2013-05-22T07:55:23Z</time>
      </trkpt>
      <trkpt lat="43.31261" lon="5.68735">
        <ele>818.9</ele>
        <time>2013-05-22T07:55:31Z</time>
      </trkpt>
      <trkpt lat="43.31255" lon="5.68726">
        <ele>820.9</ele>
        <time>2013-05-22T07:55:38Z</time>
      </trkpt>
      <trkpt lat="43.31249" lon="5.68718">
        <ele>821.2</ele>
        <time>2013-05-22T07:55:46Z</time>
      </trkpt>
      <trkpt lat="43.31242" lon="5.68711">
        <ele>820.5</ele>
        <time>2013-05-22T07:55:56Z</time>
      </trkpt>
      <trkpt lat="43.31236" lon="5.68704">
        <ele>821</ele>
        <time>2013-05-22T07:56:05Z</time>
      </trkpt>
      <trkpt lat="43.31235" lon="5.68704">
        <ele>820.7</ele>
        <time>2013-05-22T07:56:06Z</time>
      </trkpt>
      <trkpt lat="43.31223" lon="5.6869">
        <ele>820</ele>
        <time>2013-05-22T07:56:25Z</time>
      </trkpt>
      <trkpt lat="43.31214" lon="5.68685">
        <ele>815.7</ele>
        <time>2013-05-22T07:56:38Z</time>
      </trkpt>
      <trkpt lat="43.31207" lon="5.6868">
        <ele>813.9</ele>
        <time>2013-05-22T07:56:49Z</time>
      </trkpt>
      <trkpt lat="43.31199" lon="5.68675">
        <ele>812.7</ele>
        <time>2013-05-22T07:57:03Z</time>
      </trkpt>
      <trkpt lat="43.3119" lon="5.68671">
        <ele>811.9</ele>
        <time>2013-05-22T07:57:14Z</time>
      </trkpt>
      <trkpt lat="43.31189" lon="5.68671">
        <ele>812</ele>
        <time>2013-05-22T07:57:15Z</time>
      </trkpt>
      <trkpt lat="43.31175" lon="5.68663">
        <ele>808.2</ele>
        <time>2013-05-22T07:57:36Z</time>
      </trkpt>
      <trkpt lat="43.31168" lon="5.68656">
        <ele>809.7</ele>
        <time>2013-05-22T07:57:45Z</time>
      </trkpt>
      <trkpt lat="43.31161" lon="5.6865">
        <ele>809</ele>
        <time>2013-05-22T07:57:56Z</time>
      </trkpt>
      <trkpt lat="43.31154" lon="5.68644">
        <ele>808.7</ele>
        <time>2013-05-22T07:58:09Z</time>
      </trkpt>
      <trkpt lat="43.31146" lon="5.68639">
        <ele>807.4</ele>
        <time>2013-05-22T07:58:22Z</time>
      </trkpt>
      <trkpt lat="43.31145" lon="5.68639">
        <ele>807</ele>
        <time>2013-05-22T07:58:23Z</time>
      </trkpt>
      <trkpt lat="43.31129" lon="5.68633">
        <ele>806.7</ele>
        <time>2013-05-22T07:58:43Z</time>
      </trkpt>
      <trkpt lat="43.3112" lon="5.6863">
        <ele>803.7</ele>
        <time>2013-05-22T07:58:53Z</time>
      </trkpt>
      <trkpt lat="43.31112" lon="5.68628">
        <ele>801.2</ele>
        <time>2013-05-22T07:59:03Z</time>
      </trkpt>
      <trkpt lat="43.31104" lon="5.68624">
        <ele>798.4</ele>
        <time>2013-05-22T07:59:15Z</time>
      </trkpt>
      <trkpt lat="43.31096" lon="5.68629">
        <ele>794.5</ele>
        <time>2013-05-22T07:59:25Z</time>
      </trkpt>
      <trkpt lat="43.31095" lon="5.68629">
        <ele>794.2</ele>
        <time>2013-05-22T07:59:26Z</time>
      </trkpt>
      <trkpt lat="43.31079" lon="5.68626">
        <ele>788.7</ele>
        <time>2013-05-22T07:59:52Z</time>
      </trkpt>
      <trkpt lat="43.3107" lon="5.68623">
        <ele>789.2</ele>
        <time>2013-05-22T08:00:00Z</time>
      </trkpt>
      <trkpt lat="43.31062" lon="5.68621">
        <ele>791</ele>
        <time>2013-05-22T08:00:12Z</time>
      </trkpt>
      <trkpt lat="43.31054" lon="5.68615">
        <ele>793</ele>
        <time>2013-05-22T08:00:20Z</time>
      </trkpt>
      <trkpt lat="43.31046" lon="5.68615">
        <ele>793.2</ele>
        <time>2013-05-22T08:00:30Z</time>
      </trkpt>
      <trkpt lat="43.31045" lon="5.68614">
        <ele>793.4</ele>
        <time>2013-05-22T08:00:31Z</time>
      </trkpt>
      <trkpt lat="43.31034" lon="5.68626">
        <ele>786.2</ele>
        <time>2013-05-22T08:00:49Z</time>
      </trkpt>
      <trkpt lat="43.31026" lon="5.68631">
        <ele>787</ele>
        <time>2013-05-22T08:01:01Z</time>
      </trkpt>
      <trkpt lat="43.31022" lon="5.68642">
        <ele>778.5</ele>
        <time>2013-05-22T08:01:16Z</time>
      </trkpt>
      <trkpt lat="43.31015" lon="5.68636">
        <ele>782.5</ele>
        <time>2013-05-22T08:01:32Z</time>
      </trkpt>
      <trkpt lat="43.31007" lon="5.68632">
        <ele>785.2</ele>
        <time>2013-05-22T08:01:41Z</time>
      </trkpt>
      <trkpt lat="43.31006" lon="5.68633">
        <ele>785</ele>
        <time>2013-05-22T08:01:42Z</time>
      </trkpt>
      <trkpt lat="43.30992" lon="5.68643">
        <ele>786.7</ele>
        <time>2013-05-22T08:02:14Z</time>
      </trkpt>
      <trkpt lat="43.30985" lon="5.6865">
        <ele>785</ele>
        <time>2013-05-22T08:02:26Z</time>
      </trkpt>
      <trkpt lat="43.30977" lon="5.68651">
        <ele>786</ele>
        <time>2013-05-22T08:02:37Z</time>
      </trkpt>
      <trkpt lat="43.30969" lon="5.68657">
        <ele>784.2</ele>
        <time>2013-05-22T08:02:46Z</time>
      </trkpt>
      <trkpt lat="43.30968" lon="5.68658">
        <ele>783.2</ele>
        <time>2013-05-22T08:02:47Z</time>
      </trkpt>
      <trkpt lat="43.30953" lon="5.68665">
        <ele>783.5</ele>
        <time>2013-05-22T08:03:09Z</time>
      </trkpt>
      <trkpt lat="43.30944" lon="5.68666">
        <ele>783.9</ele>
        <time>2013-05-22T08:03:24Z</time>
      </trkpt>
      <trkpt lat="43.30937" lon="5.68659">
        <ele>794.2</ele>
        <time>2013-05-22T08:04:06Z</time>
      </trkpt>
      <trkpt lat="43.30936" lon="5.68659">
        <ele>794.7</ele>
        <time>2013-05-22T08:04:07Z</time>
      </trkpt>
      <trkpt lat="43.30943" lon="5.68669">
        <ele>789.9</ele>
        <time>2013-05-22T08:07:29Z</time>
      </trkpt>
      <trkpt lat="43.30934" lon="5.68675">
        <ele>801.7</ele>
        <time>2013-05-22T08:08:58Z</time>
      </trkpt>
      <trkpt lat="43.30921" lon="5.68678">
        <ele>807.5</ele>
        <time>2013-05-22T08:10:05Z</time>
      </trkpt>
      <trkpt lat="43.30921" lon="5.68679">
        <ele>807.4</ele>
        <time>2013-05-22T08:10:06Z</time>
      </trkpt>
      <trkpt lat="43.30929" lon="5.68671">
        <ele>801</ele>
        <time>2013-05-22T08:11:29Z</time>
      </trkpt>
      <trkpt lat="43.30914" lon="5.68683">
        <ele>793.5</ele>
        <time>2013-05-22T08:12:23Z</time>
      </trkpt>
      <trkpt lat="43.30906" lon="5.68688">
        <ele>791.2</ele>
        <time>2013-05-22T08:12:35Z</time>
      </trkpt>
      <trkpt lat="43.30905" lon="5.68688">
        <ele>791.4</ele>
        <time>2013-05-22T08:12:36Z</time>
      </trkpt>
      <trkpt lat="43.30896" lon="5.68707">
        <ele>788.5</ele>
        <time>2013-05-22T08:12:59Z</time>
      </trkpt>
      <trkpt lat="43.30891" lon="5.68716">
        <ele>787.5</ele>
        <time>2013-05-22T08:13:10Z</time>
      </trkpt>
      <trkpt lat="43.30886" lon="5.68724">
        <ele>788</ele>
        <time>2013-05-22T08:13:18Z</time>
      </trkpt>
      <trkpt lat="43.30879" lon="5.68731">
        <ele>786.9</ele>
        <time>2013-05-22T08:13:28Z</time>
      </trkpt>
      <trkpt lat="43.30873" lon="5.68738">
        <ele>785.4</ele>
        <time>2013-05-22T08:13:40Z</time>
      </trkpt>
      <trkpt lat="43.30872" lon="5.68739">
        <ele>785.2</ele>
        <time>2013-05-22T08:13:41Z</time>
      </trkpt>
      <trkpt lat="43.30865" lon="5.68758">
        <ele>782.5</ele>
        <time>2013-05-22T08:13:58Z</time>
      </trkpt>
      <trkpt lat="43.30867" lon="5.6877">
        <ele>782.5</ele>
        <time>2013-05-22T08:14:08Z</time>
      </trkpt>
      <trkpt lat="43.3087" lon="5.68781">
        <ele>777.7</ele>
        <time>2013-05-22T08:14:29Z</time>
      </trkpt>
      <trkpt lat="43.30868" lon="5.68793">
        <ele>775.2</ele>
        <time>2013-05-22T08:15:14Z</time>
      </trkpt>
      <trkpt lat="43.30867" lon="5.68793">
        <ele>775.2</ele>
        <time>2013-05-22T08:15:15Z</time>
      </trkpt>
      <trkpt lat="43.30851" lon="5.68797">
        <ele>769</ele>
        <time>2013-05-22T08:15:59Z</time>
      </trkpt>
      <trkpt lat="43.30845" lon="5.68805">
        <ele>766.2</ele>
        <time>2013-05-22T08:16:13Z</time>
      </trkpt>
      <trkpt lat="43.30836" lon="5.68804">
        <ele>766.5</ele>
        <time>2013-05-22T08:16:23Z</time>
      </trkpt>
      <trkpt lat="43.30835" lon="5.68804">
        <ele>766.2</ele>
        <time>2013-05-22T08:16:24Z</time>
      </trkpt>
      <trkpt lat="43.3082" lon="5.688">
        <ele>763.4</ele>
        <time>2013-05-22T08:16:43Z</time>
      </trkpt>
      <trkpt lat="43.30811" lon="5.68801">
        <ele>763.2</ele>
        <time>2013-05-22T08:16:52Z</time>
      </trkpt>
      <trkpt lat="43.30804" lon="5.68795">
        <ele>761.7</ele>
        <time>2013-05-22T08:17:01Z</time>
      </trkpt>
      <trkpt lat="43.30797" lon="5.68789">
        <ele>761.5</ele>
        <time>2013-05-22T08:17:09Z</time>
      </trkpt>
      <trkpt lat="43.3079" lon="5.68781">
        <ele>757.7</ele>
        <time>2013-05-22T08:17:25Z</time>
      </trkpt>
      <trkpt lat="43.30789" lon="5.68781">
        <ele>757.5</ele>
        <time>2013-05-22T08:17:26Z</time>
      </trkpt>
      <trkpt lat="43.30775" lon="5.6877">
        <ele>752.2</ele>
        <time>2013-05-22T08:17:56Z</time>
      </trkpt>
      <trkpt lat="43.30767" lon="5.68767">
        <ele>752.4</ele>
        <time>2013-05-22T08:18:05Z</time>
      </trkpt>
      <trkpt lat="43.30759" lon="5.68761">
        <ele>752.9</ele>
        <time>2013-05-22T08:18:15Z</time>
      </trkpt>
      <trkpt lat="43.30752" lon="5.68756">
        <ele>752.4</ele>
        <time>2013-05-22T08:18:24Z</time>
      </trkpt>
      <trkpt lat="43.30744" lon="5.68752">
        <ele>751.7</ele>
        <time>2013-05-22T08:18:34Z</time>
      </trkpt>
      <trkpt lat="43.30743" lon="5.68751">
        <ele>751.5</ele>
        <time>2013-05-22T08:18:35Z</time>
      </trkpt>
      <trkpt lat="43.30728" lon="5.68748">
        <ele>749.2</ele>
        <time>2013-05-22T08:18:51Z</time>
      </trkpt>
      <trkpt lat="43.30719" lon="5.68749">
        <ele>747.7</ele>
        <time>2013-05-22T08:18:58Z</time>
      </trkpt>
      <trkpt lat="43.30711" lon="5.68749">
        <ele>752.7</ele>
        <time>2013-05-22T08:19:08Z</time>
      </trkpt>
      <trkpt lat="43.30703" lon="5.6875">
        <ele>756.5</ele>
        <time>2013-05-22T08:19:18Z</time>
      </trkpt>
      <trkpt lat="43.30695" lon="5.68748">
        <ele>757.2</ele>
        <time>2013-05-22T08:19:27Z</time>
      </trkpt>
      <trkpt lat="43.30687" lon="5.68753">
        <ele>755.5</ele>
        <time>2013-05-22T08:19:33Z</time>
      </trkpt>
      <trkpt lat="43.30678" lon="5.68754">
        <ele>752.2</ele>
        <time>2013-05-22T08:19:43Z</time>
      </trkpt>
      <trkpt lat="43.30678" lon="5.68754">
        <ele>751.5</ele>
        <time>2013-05-22T08:19:44Z</time>
      </trkpt>
      <trkpt lat="43.30662" lon="5.68743">
        <ele>757.2</ele>
        <time>2013-05-22T08:20:09Z</time>
      </trkpt>
      <trkpt lat="43.30654" lon="5.68743">
        <ele>751.2</ele>
        <time>2013-05-22T08:20:26Z</time>
      </trkpt>
      <trkpt lat="43.30646" lon="5.68738">
        <ele>747.5</ele>
        <time>2013-05-22T08:20:39Z</time>
      </trkpt>
      <trkpt lat="43.3064" lon="5.68729">
        <ele>752.2</ele>
        <time>2013-05-22T08:20:49Z</time>
      </trkpt>
      <trkpt lat="43.3064" lon="5.68726">
        <ele>755</ele>
        <time>2013-05-22T08:20:50Z</time>
      </trkpt>
      <trkpt lat="43.30627" lon="5.68715">
        <ele>765.2</ele>
        <time>2013-05-22T08:21:13Z</time>
      </trkpt>
      <trkpt lat="43.30619" lon="5.68712">
        <ele>767</ele>
        <time>2013-05-22T08:21:26Z</time>
      </trkpt>
      <trkpt lat="43.30611" lon="5.68706">
        <ele>772.4</ele>
        <time>2013-05-22T08:21:41Z</time>
      </trkpt>
      <trkpt lat="43.30603" lon="5.68703">
        <ele>774.4</ele>
        <time>2013-05-22T08:22:00Z</time>
      </trkpt>
      <trkpt lat="43.30602" lon="5.68704">
        <ele>773.7</ele>
        <time>2013-05-22T08:22:01Z</time>
      </trkpt>
      <trkpt lat="43.30586" lon="5.687">
        <ele>779.2</ele>
        <time>2013-05-22T08:22:32Z</time>
      </trkpt>
      <trkpt lat="43.30579" lon="5.68693">
        <ele>782.9</ele>
        <time>2013-05-22T08:22:45Z</time>
      </trkpt>
      <trkpt lat="43.3057" lon="5.68693">
        <ele>784</ele>
        <time>2013-05-22T08:23:03Z</time>
      </trkpt>
      <trkpt lat="43.30569" lon="5.68693">
        <ele>783.7</ele>
        <time>2013-05-22T08:23:04Z</time>
      </trkpt>
      <trkpt lat="43.30554" lon="5.68687">
        <ele>783.9</ele>
        <time>2013-05-22T08:23:49Z</time>
      </trkpt>
      <trkpt lat="43.30558" lon="5.68697">
        <ele>793.2</ele>
        <time>2013-05-22T08:24:25Z</time>
      </trkpt>
      <trkpt lat="43.30559" lon="5.68697">
        <ele>793.7</ele>
        <time>2013-05-22T08:24:26Z</time>
      </trkpt>
      <trkpt lat="43.30572" lon="5.68713">
        <ele>796.2</ele>
        <time>2013-05-22T08:25:14Z</time>
      </trkpt>
      <trkpt lat="43.30577" lon="5.68723">
        <ele>794.2</ele>
        <time>2013-05-22T08:25:42Z</time>
      </trkpt>
      <trkpt lat="43.30577" lon="5.68724">
        <ele>794.5</ele>
        <time>2013-05-22T08:25:43Z</time>
      </trkpt>
      <trkpt lat="43.30587" lon="5.68742">
        <ele>806.5</ele>
        <time>2013-05-22T08:26:23Z</time>
      </trkpt>
      <trkpt lat="43.30592" lon="5.68752">
        <ele>807.2</ele>
        <time>2013-05-22T08:26:38Z</time>
      </trkpt>
      <trkpt lat="43.30589" lon="5.68764">
        <ele>802.9</ele>
        <time>2013-05-22T08:27:02Z</time>
      </trkpt>
      <trkpt lat="43.3059" lon="5.68764">
        <ele>802.5</ele>
        <time>2013-05-22T08:27:03Z</time>
      </trkpt>
      <trkpt lat="43.30596" lon="5.68785">
        <ele>818.7</ele>
        <time>2013-05-22T08:27:53Z</time>
      </trkpt>
      <trkpt lat="43.30588" lon="5.68785">
        <ele>813.9</ele>
        <time>2013-05-22T08:28:21Z</time>
      </trkpt>
      <trkpt lat="43.30587" lon="5.68785">
        <ele>813.7</ele>
        <time>2013-05-22T08:28:22Z</time>
      </trkpt>
      <trkpt lat="43.30575" lon="5.68771">
        <ele>814</ele>
        <time>2013-05-22T08:28:44Z</time>
      </trkpt>
      <trkpt lat="43.30569" lon="5.68762">
        <ele>817.2</ele>
        <time>2013-05-22T08:28:56Z</time>
      </trkpt>
      <trkpt lat="43.30565" lon="5.68752">
        <ele>820.5</ele>
        <time>2013-05-22T08:29:07Z</time>
      </trkpt>
      <trkpt lat="43.30559" lon="5.68744">
        <ele>822.5</ele>
        <time>2013-05-22T08:29:17Z</time>
      </trkpt>
      <trkpt lat="43.30553" lon="5.68736">
        <ele>822.2</ele>
        <time>2013-05-22T08:29:26Z</time>
      </trkpt>
      <trkpt lat="43.30552" lon="5.68735">
        <ele>822.9</ele>
        <time>2013-05-22T08:29:27Z</time>
      </trkpt>
      <trkpt lat="43.30543" lon="5.68717">
        <ele>823.2</ele>
        <time>2013-05-22T08:31:09Z</time>
      </trkpt>
      <trkpt lat="43.30542" lon="5.68716">
        <ele>822.9</ele>
        <time>2013-05-22T08:31:10Z</time>
      </trkpt>
      <trkpt lat="43.30532" lon="5.68699">
        <ele>817.7</ele>
        <time>2013-05-22T08:31:29Z</time>
      </trkpt>
      <trkpt lat="43.30526" lon="5.68692">
        <ele>816.7</ele>
        <time>2013-05-22T08:31:38Z</time>
      </trkpt>
      <trkpt lat="43.30521" lon="5.68682">
        <ele>815.9</ele>
        <time>2013-05-22T08:31:57Z</time>
      </trkpt>
      <trkpt lat="43.30516" lon="5.68672">
        <ele>811.5</ele>
        <time>2013-05-22T08:32:43Z</time>
      </trkpt>
      <trkpt lat="43.30516" lon="5.68671">
        <ele>811.5</ele>
        <time>2013-05-22T08:32:44Z</time>
      </trkpt>
      <trkpt lat="43.30518" lon="5.6865">
        <ele>811</ele>
        <time>2013-05-22T08:33:03Z</time>
      </trkpt>
      <trkpt lat="43.30511" lon="5.68643">
        <ele>806.4</ele>
        <time>2013-05-22T08:33:25Z</time>
      </trkpt>
      <trkpt lat="43.30503" lon="5.68646">
        <ele>801.9</ele>
        <time>2013-05-22T08:34:58Z</time>
      </trkpt>
      <trkpt lat="43.30502" lon="5.68647">
        <ele>801.5</ele>
        <time>2013-05-22T08:34:59Z</time>
      </trkpt>
      <trkpt lat="43.30491" lon="5.68631">
        <ele>795</ele>
        <time>2013-05-22T08:35:38Z</time>
      </trkpt>
      <trkpt lat="43.3049" lon="5.68619">
        <ele>794</ele>
        <time>2013-05-22T08:35:46Z</time>
      </trkpt>
      <trkpt lat="43.30486" lon="5.68608">
        <ele>793.2</ele>
        <time>2013-05-22T08:35:56Z</time>
      </trkpt>
      <trkpt lat="43.30483" lon="5.68597">
        <ele>790.4</ele>
        <time>2013-05-22T08:36:11Z</time>
      </trkpt>
      <trkpt lat="43.30483" lon="5.68596">
        <ele>790.4</ele>
        <time>2013-05-22T08:36:12Z</time>
      </trkpt>
      <trkpt lat="43.30476" lon="5.68576">
        <ele>788.5</ele>
        <time>2013-05-22T08:36:33Z</time>
      </trkpt>
      <trkpt lat="43.30471" lon="5.68565">
        <ele>787.2</ele>
        <time>2013-05-22T08:36:43Z</time>
      </trkpt>
      <trkpt lat="43.30466" lon="5.68556">
        <ele>787.5</ele>
        <time>2013-05-22T08:36:51Z</time>
      </trkpt>
      <trkpt lat="43.30462" lon="5.68546">
        <ele>785.7</ele>
        <time>2013-05-22T08:36:58Z</time>
      </trkpt>
      <trkpt lat="43.30458" lon="5.68535">
        <ele>784.5</ele>
        <time>2013-05-22T08:37:08Z</time>
      </trkpt>
      <trkpt lat="43.30454" lon="5.68525">
        <ele>784</ele>
        <time>2013-05-22T08:37:16Z</time>
      </trkpt>
      <trkpt lat="43.30453" lon="5.68524">
        <ele>784</ele>
        <time>2013-05-22T08:37:17Z</time>
      </trkpt>
      <trkpt lat="43.30446" lon="5.68503">
        <ele>783</ele>
        <time>2013-05-22T08:37:34Z</time>
      </trkpt>
      <trkpt lat="43.30443" lon="5.68492">
        <ele>782.7</ele>
        <time>2013-05-22T08:37:42Z</time>
      </trkpt>
      <trkpt lat="43.30439" lon="5.68482">
        <ele>781.5</ele>
        <time>2013-05-22T08:37:51Z</time>
      </trkpt>
      <trkpt lat="43.30431" lon="5.68476">
        <ele>779.5</ele>
        <time>2013-05-22T08:38:01Z</time>
      </trkpt>
      <trkpt lat="43.30424" lon="5.68469">
        <ele>777.9</ele>
        <time>2013-05-22T08:38:11Z</time>
      </trkpt>
      <trkpt lat="43.30418" lon="5.68461">
        <ele>776.5</ele>
        <time>2013-05-22T08:38:21Z</time>
      </trkpt>
      <trkpt lat="43.30418" lon="5.6846">
        <ele>776.4</ele>
        <time>2013-05-22T08:38:22Z</time>
      </trkpt>
      <trkpt lat="43.30407" lon="5.68444">
        <ele>772.2</ele>
        <time>2013-05-22T08:38:41Z</time>
      </trkpt>
      <trkpt lat="43.30401" lon="5.68436">
        <ele>770.7</ele>
        <time>2013-05-22T08:38:51Z</time>
      </trkpt>
      <trkpt lat="43.30395" lon="5.68427">
        <ele>769.4</ele>
        <time>2013-05-22T08:38:59Z</time>
      </trkpt>
      <trkpt lat="43.30389" lon="5.68418">
        <ele>769</ele>
        <time>2013-05-22T08:39:07Z</time>
      </trkpt>
      <trkpt lat="43.30384" lon="5.68408">
        <ele>768.2</ele>
        <time>2013-05-22T08:39:16Z</time>
      </trkpt>
      <trkpt lat="43.30378" lon="5.68399">
        <ele>768</ele>
        <time>2013-05-22T08:39:25Z</time>
      </trkpt>
      <trkpt lat="43.30377" lon="5.68398">
        <ele>768</ele>
        <time>2013-05-22T08:39:26Z</time>
      </trkpt>
      <trkpt lat="43.30366" lon="5.68384">
        <ele>766.7</ele>
        <time>2013-05-22T08:39:40Z</time>
      </trkpt>
      <trkpt lat="43.3036" lon="5.68376">
        <ele>766.2</ele>
        <time>2013-05-22T08:39:47Z</time>
      </trkpt>
      <trkpt lat="43.30355" lon="5.68369">
        <ele>765.5</ele>
        <time>2013-05-22T08:39:54Z</time>
      </trkpt>
      <trkpt lat="43.30349" lon="5.6836">
        <ele>765</ele>
        <time>2013-05-22T08:40:02Z</time>
      </trkpt>
      <trkpt lat="43.30343" lon="5.68351">
        <ele>764.7</ele>
        <time>2013-05-22T08:40:11Z</time>
      </trkpt>
      <trkpt lat="43.30338" lon="5.68342">
        <ele>764.4</ele>
        <time>2013-05-22T08:40:19Z</time>
      </trkpt>
      <trkpt lat="43.30334" lon="5.68331">
        <ele>763.7</ele>
        <time>2013-05-22T08:40:28Z</time>
      </trkpt>
      <trkpt lat="43.30333" lon="5.6833">
        <ele>763.7</ele>
        <time>2013-05-22T08:40:29Z</time>
      </trkpt>
      <trkpt lat="43.30324" lon="5.68312">
        <ele>761</ele>
        <time>2013-05-22T08:40:47Z</time>
      </trkpt>
      <trkpt lat="43.30317" lon="5.68305">
        <ele>758.5</ele>
        <time>2013-05-22T08:40:59Z</time>
      </trkpt>
      <trkpt lat="43.30311" lon="5.68297">
        <ele>756.2</ele>
        <time>2013-05-22T08:41:09Z</time>
      </trkpt>
      <trkpt lat="43.30305" lon="5.68289">
        <ele>755.2</ele>
        <time>2013-05-22T08:41:20Z</time>
      </trkpt>
      <trkpt lat="43.30298" lon="5.68281">
        <ele>754</ele>
        <time>2013-05-22T08:41:33Z</time>
      </trkpt>
      <trkpt lat="43.30298" lon="5.6828">
        <ele>753.9</ele>
        <time>2013-05-22T08:41:34Z</time>
      </trkpt>
      <trkpt lat="43.30291" lon="5.6826">
        <ele>750</ele>
        <time>2013-05-22T08:42:10Z</time>
      </trkpt>
      <trkpt lat="43.30283" lon="5.68254">
        <ele>748.7</ele>
        <time>2013-05-22T08:42:26Z</time>
      </trkpt>
      <trkpt lat="43.30277" lon="5.68245">
        <ele>745.5</ele>
        <time>2013-05-22T08:42:40Z</time>
      </trkpt>
      <trkpt lat="43.30276" lon="5.68245">
        <ele>745.2</ele>
        <time>2013-05-22T08:42:41Z</time>
      </trkpt>
      <trkpt lat="43.30265" lon="5.6823">
        <ele>742.4</ele>
        <time>2013-05-22T08:43:07Z</time>
      </trkpt>
      <trkpt lat="43.30258" lon="5.68224">
        <ele>740.2</ele>
        <time>2013-05-22T08:43:19Z</time>
      </trkpt>
      <trkpt lat="43.30252" lon="5.68216">
        <ele>738</ele>
        <time>2013-05-22T08:43:30Z</time>
      </trkpt>
      <trkpt lat="43.30245" lon="5.68208">
        <ele>736.2</ele>
        <time>2013-05-22T08:43:46Z</time>
      </trkpt>
      <trkpt lat="43.30245" lon="5.68207">
        <ele>736</ele>
        <time>2013-05-22T08:43:47Z</time>
      </trkpt>
      <trkpt lat="43.3023" lon="5.68196">
        <ele>731.2</ele>
        <time>2013-05-22T08:44:09Z</time>
      </trkpt>
      <trkpt lat="43.30224" lon="5.68188">
        <ele>728.4</ele>
        <time>2013-05-22T08:44:22Z</time>
      </trkpt>
      <trkpt lat="43.30217" lon="5.68181">
        <ele>725.2</ele>
        <time>2013-05-22T08:44:35Z</time>
      </trkpt>
      <trkpt lat="43.30209" lon="5.68176">
        <ele>722</ele>
        <time>2013-05-22T08:44:48Z</time>
      </trkpt>
      <trkpt lat="43.30208" lon="5.68175">
        <ele>721.7</ele>
        <time>2013-05-22T08:44:49Z</time>
      </trkpt>
      <trkpt lat="43.30193" lon="5.68167">
        <ele>717.4</ele>
        <time>2013-05-22T08:45:14Z</time>
      </trkpt>
      <trkpt lat="43.30185" lon="5.68161">
        <ele>717</ele>
        <time>2013-05-22T08:45:27Z</time>
      </trkpt>
      <trkpt lat="43.30176" lon="5.6816">
        <ele>715</ele>
        <time>2013-05-22T08:45:38Z</time>
      </trkpt>
      <trkpt lat="43.30168" lon="5.68159">
        <ele>713.2</ele>
        <time>2013-05-22T08:45:51Z</time>
      </trkpt>
      <trkpt lat="43.30167" lon="5.68159">
        <ele>713</ele>
        <time>2013-05-22T08:45:52Z</time>
      </trkpt>
      <trkpt lat="43.30151" lon="5.68157">
        <ele>710</ele>
        <time>2013-05-22T08:46:13Z</time>
      </trkpt>
      <trkpt lat="43.30143" lon="5.68153">
        <ele>706.9</ele>
        <time>2013-05-22T08:46:26Z</time>
      </trkpt>
      <trkpt lat="43.30134" lon="5.68153">
        <ele>706.7</ele>
        <time>2013-05-22T08:46:37Z</time>
      </trkpt>
      <trkpt lat="43.30126" lon="5.68148">
        <ele>704.5</ele>
        <time>2013-05-22T08:46:50Z</time>
      </trkpt>
      <trkpt lat="43.30118" lon="5.68145">
        <ele>700.7</ele>
        <time>2013-05-22T08:47:05Z</time>
      </trkpt>
      <trkpt lat="43.30117" lon="5.68145">
        <ele>700.9</ele>
        <time>2013-05-22T08:47:06Z</time>
      </trkpt>
      <trkpt lat="43.301" lon="5.68144">
        <ele>698.5</ele>
        <time>2013-05-22T08:47:34Z</time>
      </trkpt>
      <trkpt lat="43.30092" lon="5.68144">
        <ele>697.7</ele>
        <time>2013-05-22T08:47:43Z</time>
      </trkpt>
      <trkpt lat="43.30083" lon="5.68147">
        <ele>699.2</ele>
        <time>2013-05-22T08:47:53Z</time>
      </trkpt>
      <trkpt lat="43.30076" lon="5.68153">
        <ele>700.7</ele>
        <time>2013-05-22T08:48:45Z</time>
      </trkpt>
      <trkpt lat="43.30076" lon="5.68154">
        <ele>701</ele>
        <time>2013-05-22T08:48:46Z</time>
      </trkpt>
      <trkpt lat="43.30078" lon="5.68166">
        <ele>698</ele>
        <time>2013-05-22T08:51:34Z</time>
      </trkpt>
      <trkpt lat="43.30077" lon="5.68188">
        <ele>697.5</ele>
        <time>2013-05-22T08:51:50Z</time>
      </trkpt>
      <trkpt lat="43.30077" lon="5.68199">
        <ele>699.2</ele>
        <time>2013-05-22T08:51:57Z</time>
      </trkpt>
      <trkpt lat="43.30077" lon="5.6821">
        <ele>699.7</ele>
        <time>2013-05-22T08:52:05Z</time>
      </trkpt>
      <trkpt lat="43.30078" lon="5.68222">
        <ele>699.4</ele>
        <time>2013-05-22T08:52:13Z</time>
      </trkpt>
      <trkpt lat="43.3008" lon="5.68234">
        <ele>697.7</ele>
        <time>2013-05-22T08:52:21Z</time>
      </trkpt>
      <trkpt lat="43.3008" lon="5.68245">
        <ele>699.5</ele>
        <time>2013-05-22T08:52:27Z</time>
      </trkpt>
      <trkpt lat="43.3008" lon="5.68256">
        <ele>700.5</ele>
        <time>2013-05-22T08:52:34Z</time>
      </trkpt>
      <trkpt lat="43.3008" lon="5.68258">
        <ele>701</ele>
        <time>2013-05-22T08:52:35Z</time>
      </trkpt>
      <trkpt lat="43.30086" lon="5.68279">
        <ele>702</ele>
        <time>2013-05-22T08:53:06Z</time>
      </trkpt>
      <trkpt lat="43.30088" lon="5.6829">
        <ele>702</ele>
        <time>2013-05-22T08:53:14Z</time>
      </trkpt>
      <trkpt lat="43.30091" lon="5.68301">
        <ele>700.9</ele>
        <time>2013-05-22T08:53:21Z</time>
      </trkpt>
      <trkpt lat="43.30095" lon="5.68311">
        <ele>703</ele>
        <time>2013-05-22T08:53:28Z</time>
      </trkpt>
      <trkpt lat="43.30098" lon="5.68321">
        <ele>705</ele>
        <time>2013-05-22T08:53:35Z</time>
      </trkpt>
      <trkpt lat="43.30098" lon="5.68323">
        <ele>704.7</ele>
        <time>2013-05-22T08:53:36Z</time>
      </trkpt>
      <trkpt lat="43.30102" lon="5.68344">
        <ele>702.2</ele>
        <time>2013-05-22T08:53:49Z</time>
      </trkpt>
      <trkpt lat="43.30105" lon="5.68356">
        <ele>701.7</ele>
        <time>2013-05-22T08:53:56Z</time>
      </trkpt>
      <trkpt lat="43.30106" lon="5.68367">
        <ele>702.2</ele>
        <time>2013-05-22T08:54:03Z</time>
      </trkpt>
      <trkpt lat="43.3011" lon="5.68377">
        <ele>700.2</ele>
        <time>2013-05-22T08:54:12Z</time>
      </trkpt>
      <trkpt lat="43.30114" lon="5.68388">
        <ele>701.2</ele>
        <time>2013-05-22T08:54:20Z</time>
      </trkpt>
      <trkpt lat="43.30119" lon="5.68396">
        <ele>699</ele>
        <time>2013-05-22T08:54:29Z</time>
      </trkpt>
      <trkpt lat="43.30122" lon="5.68408">
        <ele>700</ele>
        <time>2013-05-22T08:54:38Z</time>
      </trkpt>
      <trkpt lat="43.30122" lon="5.68409">
        <ele>699.9</ele>
        <time>2013-05-22T08:54:39Z</time>
      </trkpt>
      <trkpt lat="43.30129" lon="5.68429">
        <ele>702.7</ele>
        <time>2013-05-22T08:54:57Z</time>
      </trkpt>
      <trkpt lat="43.3013" lon="5.68441">
        <ele>702.2</ele>
        <time>2013-05-22T08:55:05Z</time>
      </trkpt>
      <trkpt lat="43.3013" lon="5.68453">
        <ele>705.7</ele>
        <time>2013-05-22T08:55:12Z</time>
      </trkpt>
      <trkpt lat="43.30132" lon="5.68464">
        <ele>707.7</ele>
        <time>2013-05-22T08:55:20Z</time>
      </trkpt>
      <trkpt lat="43.30135" lon="5.68476">
        <ele>708.2</ele>
        <time>2013-05-22T08:55:30Z</time>
      </trkpt>
      <trkpt lat="43.30138" lon="5.68487">
        <ele>703.7</ele>
        <time>2013-05-22T08:55:41Z</time>
      </trkpt>
      <trkpt lat="43.30138" lon="5.68488">
        <ele>703.7</ele>
        <time>2013-05-22T08:55:42Z</time>
      </trkpt>
      <trkpt lat="43.30143" lon="5.68509">
        <ele>708</ele>
        <time>2013-05-22T08:55:56Z</time>
      </trkpt>
      <trkpt lat="43.30145" lon="5.68521">
        <ele>709.2</ele>
        <time>2013-05-22T08:56:05Z</time>
      </trkpt>
      <trkpt lat="43.30149" lon="5.68531">
        <ele>709.2</ele>
        <time>2013-05-22T08:56:13Z</time>
      </trkpt>
      <trkpt lat="43.30152" lon="5.68541">
        <ele>708.7</ele>
        <time>2013-05-22T08:56:21Z</time>
      </trkpt>
      <trkpt lat="43.30155" lon="5.68553">
        <ele>708.2</ele>
        <time>2013-05-22T08:56:29Z</time>
      </trkpt>
      <trkpt lat="43.30155" lon="5.68564">
        <ele>709.2</ele>
        <time>2013-05-22T08:56:37Z</time>
      </trkpt>
      <trkpt lat="43.30155" lon="5.68576">
        <ele>709.4</ele>
        <time>2013-05-22T08:56:45Z</time>
      </trkpt>
      <trkpt lat="43.30156" lon="5.68577">
        <ele>709.2</ele>
        <time>2013-05-22T08:56:46Z</time>
      </trkpt>
      <trkpt lat="43.30167" lon="5.68594">
        <ele>709.7</ele>
        <time>2013-05-22T08:57:01Z</time>
      </trkpt>
      <trkpt lat="43.3017" lon="5.68604">
        <ele>709.5</ele>
        <time>2013-05-22T08:57:11Z</time>
      </trkpt>
      <trkpt lat="43.30176" lon="5.68613">
        <ele>705.7</ele>
        <time>2013-05-22T08:57:21Z</time>
      </trkpt>
      <trkpt lat="43.30181" lon="5.68622">
        <ele>704.9</ele>
        <time>2013-05-22T08:57:31Z</time>
      </trkpt>
      <trkpt lat="43.30184" lon="5.68633">
        <ele>705</ele>
        <time>2013-05-22T08:57:40Z</time>
      </trkpt>
      <trkpt lat="43.30188" lon="5.68644">
        <ele>708.4</ele>
        <time>2013-05-22T08:57:49Z</time>
      </trkpt>
      <trkpt lat="43.30188" lon="5.68645">
        <ele>708</ele>
        <time>2013-05-22T08:57:50Z</time>
      </trkpt>
      <trkpt lat="43.30196" lon="5.68664">
        <ele>712.4</ele>
        <time>2013-05-22T08:58:06Z</time>
      </trkpt>
      <trkpt lat="43.30202" lon="5.68673">
        <ele>712</ele>
        <time>2013-05-22T08:58:15Z</time>
      </trkpt>
      <trkpt lat="43.30208" lon="5.68682">
        <ele>713.4</ele>
        <time>2013-05-22T08:58:23Z</time>
      </trkpt>
      <trkpt lat="43.30213" lon="5.6869">
        <ele>711.2</ele>
        <time>2013-05-22T08:58:32Z</time>
      </trkpt>
      <trkpt lat="43.30216" lon="5.68701">
        <ele>712.2</ele>
        <time>2013-05-22T08:58:39Z</time>
      </trkpt>
      <trkpt lat="43.30218" lon="5.68712">
        <ele>712</ele>
        <time>2013-05-22T08:58:47Z</time>
      </trkpt>
      <trkpt lat="43.30222" lon="5.68723">
        <ele>714</ele>
        <time>2013-05-22T08:58:55Z</time>
      </trkpt>
      <trkpt lat="43.30222" lon="5.68725">
        <ele>714.2</ele>
        <time>2013-05-22T08:58:56Z</time>
      </trkpt>
      <trkpt lat="43.30229" lon="5.68744">
        <ele>706</ele>
        <time>2013-05-22T08:59:16Z</time>
      </trkpt>
      <trkpt lat="43.30231" lon="5.68755">
        <ele>707.5</ele>
        <time>2013-05-22T08:59:24Z</time>
      </trkpt>
      <trkpt lat="43.30232" lon="5.68767">
        <ele>711.2</ele>
        <time>2013-05-22T08:59:32Z</time>
      </trkpt>
      <trkpt lat="43.30236" lon="5.68777">
        <ele>713.5</ele>
        <time>2013-05-22T08:59:41Z</time>
      </trkpt>
      <trkpt lat="43.30242" lon="5.68787">
        <ele>716</ele>
        <time>2013-05-22T08:59:51Z</time>
      </trkpt>
      <trkpt lat="43.30247" lon="5.68796">
        <ele>717.5</ele>
        <time>2013-05-22T09:00:00Z</time>
      </trkpt>
      <trkpt lat="43.30248" lon="5.68797">
        <ele>717.5</ele>
        <time>2013-05-22T09:00:01Z</time>
      </trkpt>
      <trkpt lat="43.30255" lon="5.68817">
        <ele>717</ele>
        <time>2013-05-22T09:00:20Z</time>
      </trkpt>
      <trkpt lat="43.3026" lon="5.68827">
        <ele>716.7</ele>
        <time>2013-05-22T09:00:30Z</time>
      </trkpt>
      <trkpt lat="43.30261" lon="5.68839">
        <ele>717.9</ele>
        <time>2013-05-22T09:00:40Z</time>
      </trkpt>
      <trkpt lat="43.30262" lon="5.68851">
        <ele>716.2</ele>
        <time>2013-05-22T09:00:51Z</time>
      </trkpt>
      <trkpt lat="43.30264" lon="5.68863">
        <ele>716.9</ele>
        <time>2013-05-22T09:01:01Z</time>
      </trkpt>
      <trkpt lat="43.30264" lon="5.68864">
        <ele>717</ele>
        <time>2013-05-22T09:01:02Z</time>
      </trkpt>
      <trkpt lat="43.30274" lon="5.68881">
        <ele>719</ele>
        <time>2013-05-22T09:01:21Z</time>
      </trkpt>
      <trkpt lat="43.3028" lon="5.6889">
        <ele>718.5</ele>
        <time>2013-05-22T09:01:34Z</time>
      </trkpt>
      <trkpt lat="43.30284" lon="5.689">
        <ele>716</ele>
        <time>2013-05-22T09:01:43Z</time>
      </trkpt>
      <trkpt lat="43.3029" lon="5.68908">
        <ele>711.7</ele>
        <time>2013-05-22T09:01:55Z</time>
      </trkpt>
      <trkpt lat="43.30293" lon="5.68918">
        <ele>715.4</ele>
        <time>2013-05-22T09:02:01Z</time>
      </trkpt>
      <trkpt lat="43.30295" lon="5.6893">
        <ele>717.2</ele>
        <time>2013-05-22T09:02:08Z</time>
      </trkpt>
      <trkpt lat="43.30294" lon="5.68932">
        <ele>719.2</ele>
        <time>2013-05-22T09:02:09Z</time>
      </trkpt>
      <trkpt lat="43.30298" lon="5.68951">
        <ele>716.2</ele>
        <time>2013-05-22T09:02:25Z</time>
      </trkpt>
      <trkpt lat="43.30298" lon="5.68963">
        <ele>719.2</ele>
        <time>2013-05-22T09:02:33Z</time>
      </trkpt>
      <trkpt lat="43.30299" lon="5.68975">
        <ele>724.9</ele>
        <time>2013-05-22T09:02:42Z</time>
      </trkpt>
      <trkpt lat="43.30302" lon="5.68986">
        <ele>721.9</ele>
        <time>2013-05-22T09:02:54Z</time>
      </trkpt>
      <trkpt lat="43.30304" lon="5.68996">
        <ele>721.4</ele>
        <time>2013-05-22T09:03:02Z</time>
      </trkpt>
      <trkpt lat="43.30302" lon="5.69006">
        <ele>726.5</ele>
        <time>2013-05-22T09:03:08Z</time>
      </trkpt>
      <trkpt lat="43.30301" lon="5.69018">
        <ele>729</ele>
        <time>2013-05-22T09:03:15Z</time>
      </trkpt>
      <trkpt lat="43.30301" lon="5.69019">
        <ele>728.5</ele>
        <time>2013-05-22T09:03:16Z</time>
      </trkpt>
      <trkpt lat="43.303" lon="5.69042">
        <ele>730.2</ele>
        <time>2013-05-22T09:03:33Z</time>
      </trkpt>
      <trkpt lat="43.30299" lon="5.69053">
        <ele>727.5</ele>
        <time>2013-05-22T09:03:42Z</time>
      </trkpt>
      <trkpt lat="43.30301" lon="5.69065">
        <ele>728.7</ele>
        <time>2013-05-22T09:03:51Z</time>
      </trkpt>
      <trkpt lat="43.30305" lon="5.69076">
        <ele>730.7</ele>
        <time>2013-05-22T09:04:00Z</time>
      </trkpt>
      <trkpt lat="43.3031" lon="5.69086">
        <ele>732.2</ele>
        <time>2013-05-22T09:04:10Z</time>
      </trkpt>
      <trkpt lat="43.30312" lon="5.69097">
        <ele>735.5</ele>
        <time>2013-05-22T09:04:18Z</time>
      </trkpt>
      <trkpt lat="43.30313" lon="5.69099">
        <ele>735.4</ele>
        <time>2013-05-22T09:04:19Z</time>
      </trkpt>
      <trkpt lat="43.3032" lon="5.69118">
        <ele>722.5</ele>
        <time>2013-05-22T09:04:36Z</time>
      </trkpt>
      <trkpt lat="43.30322" lon="5.6913">
        <ele>726.5</ele>
        <time>2013-05-22T09:04:43Z</time>
      </trkpt>
      <trkpt lat="43.30323" lon="5.69142">
        <ele>729.7</ele>
        <time>2013-05-22T09:04:52Z</time>
      </trkpt>
      <trkpt lat="43.30326" lon="5.69154">
        <ele>732</ele>
        <time>2013-05-22T09:05:02Z</time>
      </trkpt>
      <trkpt lat="43.30329" lon="5.69164">
        <ele>730.2</ele>
        <time>2013-05-22T09:05:12Z</time>
      </trkpt>
      <trkpt lat="43.30334" lon="5.69174">
        <ele>731</ele>
        <time>2013-05-22T09:05:22Z</time>
      </trkpt>
      <trkpt lat="43.30334" lon="5.69175">
        <ele>731</ele>
        <time>2013-05-22T09:05:23Z</time>
      </trkpt>
      <trkpt lat="43.30344" lon="5.69193">
        <ele>735.2</ele>
        <time>2013-05-22T09:05:46Z</time>
      </trkpt>
      <trkpt lat="43.30352" lon="5.69199">
        <ele>736.4</ele>
        <time>2013-05-22T09:05:56Z</time>
      </trkpt>
      <trkpt lat="43.30355" lon="5.6921">
        <ele>737.5</ele>
        <time>2013-05-22T09:06:06Z</time>
      </trkpt>
      <trkpt lat="43.30357" lon="5.69221">
        <ele>740.7</ele>
        <time>2013-05-22T09:06:15Z</time>
      </trkpt>
      <trkpt lat="43.30359" lon="5.69232">
        <ele>742.2</ele>
        <time>2013-05-22T09:06:24Z</time>
      </trkpt>
      <trkpt lat="43.3036" lon="5.69233">
        <ele>741.2</ele>
        <time>2013-05-22T09:06:25Z</time>
      </trkpt>
      <trkpt lat="43.30364" lon="5.69254">
        <ele>741.5</ele>
        <time>2013-05-22T09:06:43Z</time>
      </trkpt>
      <trkpt lat="43.30363" lon="5.69267">
        <ele>741.5</ele>
        <time>2013-05-22T09:06:54Z</time>
      </trkpt>
      <trkpt lat="43.30357" lon="5.69275">
        <ele>741.2</ele>
        <time>2013-05-22T09:07:09Z</time>
      </trkpt>
      <trkpt lat="43.30352" lon="5.69285">
        <ele>741.2</ele>
        <time>2013-05-22T09:07:18Z</time>
      </trkpt>
      <trkpt lat="43.30352" lon="5.69296">
        <ele>742</ele>
        <time>2013-05-22T09:07:26Z</time>
      </trkpt>
      <trkpt lat="43.30352" lon="5.69297">
        <ele>742</ele>
        <time>2013-05-22T09:07:27Z</time>
      </trkpt>
      <trkpt lat="43.30355" lon="5.69319">
        <ele>744.2</ele>
        <time>2013-05-22T09:07:42Z</time>
      </trkpt>
      <trkpt lat="43.30358" lon="5.6933">
        <ele>744.7</ele>
        <time>2013-05-22T09:07:50Z</time>
      </trkpt>
      <trkpt lat="43.30358" lon="5.69342">
        <ele>738.9</ele>
        <time>2013-05-22T09:08:05Z</time>
      </trkpt>
      <trkpt lat="43.30359" lon="5.69354">
        <ele>743</ele>
        <time>2013-05-22T09:08:12Z</time>
      </trkpt>
      <trkpt lat="43.3036" lon="5.69365">
        <ele>744.7</ele>
        <time>2013-05-22T09:08:19Z</time>
      </trkpt>
      <trkpt lat="43.3036" lon="5.69377">
        <ele>743.7</ele>
        <time>2013-05-22T09:08:30Z</time>
      </trkpt>
      <trkpt lat="43.3036" lon="5.69378">
        <ele>743</ele>
        <time>2013-05-22T09:08:31Z</time>
      </trkpt>
      <trkpt lat="43.30361" lon="5.694">
        <ele>746.5</ele>
        <time>2013-05-22T09:08:51Z</time>
      </trkpt>
      <trkpt lat="43.30359" lon="5.69411">
        <ele>748.2</ele>
        <time>2013-05-22T09:09:00Z</time>
      </trkpt>
      <trkpt lat="43.3036" lon="5.69422">
        <ele>748.7</ele>
        <time>2013-05-22T09:09:08Z</time>
      </trkpt>
      <trkpt lat="43.30362" lon="5.69433">
        <ele>749.7</ele>
        <time>2013-05-22T09:09:16Z</time>
      </trkpt>
      <trkpt lat="43.30365" lon="5.69444">
        <ele>750</ele>
        <time>2013-05-22T09:09:24Z</time>
      </trkpt>
      <trkpt lat="43.30365" lon="5.69456">
        <ele>749.4</ele>
        <time>2013-05-22T09:09:34Z</time>
      </trkpt>
      <trkpt lat="43.30364" lon="5.69457">
        <ele>749.5</ele>
        <time>2013-05-22T09:09:35Z</time>
      </trkpt>
      <trkpt lat="43.30367" lon="5.69479">
        <ele>750</ele>
        <time>2013-05-22T09:09:51Z</time>
      </trkpt>
      <trkpt lat="43.30371" lon="5.69489">
        <ele>750.7</ele>
        <time>2013-05-22T09:10:00Z</time>
      </trkpt>
      <trkpt lat="43.30375" lon="5.695">
        <ele>756</ele>
        <time>2013-05-22T09:10:08Z</time>
      </trkpt>
      <trkpt lat="43.30379" lon="5.6951">
        <ele>757.5</ele>
        <time>2013-05-22T09:10:15Z</time>
      </trkpt>
      <trkpt lat="43.30383" lon="5.69521">
        <ele>759.7</ele>
        <time>2013-05-22T09:10:26Z</time>
      </trkpt>
      <trkpt lat="43.30388" lon="5.69529">
        <ele>759.5</ele>
        <time>2013-05-22T09:10:33Z</time>
      </trkpt>
      <trkpt lat="43.30393" lon="5.69538">
        <ele>756.5</ele>
        <time>2013-05-22T09:10:41Z</time>
      </trkpt>
      <trkpt lat="43.30394" lon="5.69539">
        <ele>756.2</ele>
        <time>2013-05-22T09:10:42Z</time>
      </trkpt>
      <trkpt lat="43.30408" lon="5.69551">
        <ele>756.5</ele>
        <time>2013-05-22T09:10:59Z</time>
      </trkpt>
      <trkpt lat="43.30414" lon="5.69558">
        <ele>755.9</ele>
        <time>2013-05-22T09:11:07Z</time>
      </trkpt>
      <trkpt lat="43.30421" lon="5.69564">
        <ele>755.2</ele>
        <time>2013-05-22T09:11:15Z</time>
      </trkpt>
      <trkpt lat="43.30429" lon="5.69571">
        <ele>755</ele>
        <time>2013-05-22T09:11:23Z</time>
      </trkpt>
      <trkpt lat="43.30433" lon="5.6958">
        <ele>756</ele>
        <time>2013-05-22T09:11:35Z</time>
      </trkpt>
      <trkpt lat="43.30434" lon="5.69591">
        <ele>756.7</ele>
        <time>2013-05-22T09:11:42Z</time>
      </trkpt>
      <trkpt lat="43.30433" lon="5.69593">
        <ele>756.9</ele>
        <time>2013-05-22T09:11:43Z</time>
      </trkpt>
      <trkpt lat="43.30432" lon="5.69614">
        <ele>755.5</ele>
        <time>2013-05-22T09:11:59Z</time>
      </trkpt>
      <trkpt lat="43.30433" lon="5.69624">
        <ele>755</ele>
        <time>2013-05-22T09:12:06Z</time>
      </trkpt>
      <trkpt lat="43.30435" lon="5.69635">
        <ele>755.2</ele>
        <time>2013-05-22T09:12:13Z</time>
      </trkpt>
      <trkpt lat="43.30436" lon="5.69646">
        <ele>755</ele>
        <time>2013-05-22T09:12:20Z</time>
      </trkpt>
      <trkpt lat="43.30438" lon="5.69658">
        <ele>754</ele>
        <time>2013-05-22T09:12:28Z</time>
      </trkpt>
      <trkpt lat="43.30438" lon="5.6967">
        <ele>753.2</ele>
        <time>2013-05-22T09:12:37Z</time>
      </trkpt>
      <trkpt lat="43.30439" lon="5.69682">
        <ele>756</ele>
        <time>2013-05-22T09:12:46Z</time>
      </trkpt>
      <trkpt lat="43.30439" lon="5.69683">
        <ele>756.5</ele>
        <time>2013-05-22T09:12:47Z</time>
      </trkpt>
      <trkpt lat="43.30442" lon="5.69704">
        <ele>756.5</ele>
        <time>2013-05-22T09:13:06Z</time>
      </trkpt>
      <trkpt lat="43.30446" lon="5.69715">
        <ele>758</ele>
        <time>2013-05-22T09:13:17Z</time>
      </trkpt>
      <trkpt lat="43.30451" lon="5.69724">
        <ele>762.7</ele>
        <time>2013-05-22T09:13:29Z</time>
      </trkpt>
      <trkpt lat="43.30456" lon="5.69734">
        <ele>762</ele>
        <time>2013-05-22T09:13:38Z</time>
      </trkpt>
      <trkpt lat="43.30464" lon="5.6974">
        <ele>763.5</ele>
        <time>2013-05-22T09:14:23Z</time>
      </trkpt>
      <trkpt lat="43.30464" lon="5.6974">
        <ele>763</ele>
        <time>2013-05-22T09:14:24Z</time>
      </trkpt>
      <trkpt lat="43.3047" lon="5.6975">
        <ele>771.4</ele>
        <time>2013-05-22T09:20:01Z</time>
      </trkpt>
      <trkpt lat="43.30486" lon="5.69752">
        <ele>769.7</ele>
        <time>2013-05-22T09:20:24Z</time>
      </trkpt>
      <trkpt lat="43.30495" lon="5.6975">
        <ele>770.7</ele>
        <time>2013-05-22T09:20:36Z</time>
      </trkpt>
      <trkpt lat="43.30504" lon="5.69749">
        <ele>774.7</ele>
        <time>2013-05-22T09:20:51Z</time>
      </trkpt>
      <trkpt lat="43.30512" lon="5.69745">
        <ele>779.7</ele>
        <time>2013-05-22T09:21:08Z</time>
      </trkpt>
      <trkpt lat="43.30512" lon="5.69744">
        <ele>780</ele>
        <time>2013-05-22T09:21:09Z</time>
      </trkpt>
      <trkpt lat="43.30528" lon="5.69739">
        <ele>783.5</ele>
        <time>2013-05-22T09:21:38Z</time>
      </trkpt>
      <trkpt lat="43.30536" lon="5.69742">
        <ele>784.4</ele>
        <time>2013-05-22T09:21:56Z</time>
      </trkpt>
      <trkpt lat="43.30545" lon="5.69746">
        <ele>785.2</ele>
        <time>2013-05-22T09:22:19Z</time>
      </trkpt>
      <trkpt lat="43.30545" lon="5.69746">
        <ele>785</ele>
        <time>2013-05-22T09:22:20Z</time>
      </trkpt>
      <trkpt lat="43.30562" lon="5.69743">
        <ele>793.7</ele>
        <time>2013-05-22T09:23:08Z</time>
      </trkpt>
      <trkpt lat="43.30571" lon="5.69742">
        <ele>792.4</ele>
        <time>2013-05-22T09:23:24Z</time>
      </trkpt>
      <trkpt lat="43.30571" lon="5.69742">
        <ele>792.2</ele>
        <time>2013-05-22T09:23:25Z</time>
      </trkpt>
      <trkpt lat="43.30585" lon="5.69755">
        <ele>796</ele>
        <time>2013-05-22T09:24:20Z</time>
      </trkpt>
      <trkpt lat="43.30594" lon="5.69751">
        <ele>804.2</ele>
        <time>2013-05-22T09:24:45Z</time>
      </trkpt>
      <trkpt lat="43.30594" lon="5.69751">
        <ele>804.9</ele>
        <time>2013-05-22T09:24:46Z</time>
      </trkpt>
      <trkpt lat="43.30608" lon="5.69755">
        <ele>809.5</ele>
        <time>2013-05-22T09:25:41Z</time>
      </trkpt>
      <trkpt lat="43.30613" lon="5.69745">
        <ele>817</ele>
        <time>2013-05-22T09:26:09Z</time>
      </trkpt>
      <trkpt lat="43.30613" lon="5.69744">
        <ele>817.4</ele>
        <time>2013-05-22T09:26:10Z</time>
      </trkpt>
      <trkpt lat="43.30628" lon="5.69733">
        <ele>823.7</ele>
        <time>2013-05-22T09:27:27Z</time>
      </trkpt>
      <trkpt lat="43.30629" lon="5.69733">
        <ele>824</ele>
        <time>2013-05-22T09:27:28Z</time>
      </trkpt>
      <trkpt lat="43.30642" lon="5.69742">
        <ele>827.5</ele>
        <time>2013-05-22T09:28:12Z</time>
      </trkpt>
      <trkpt lat="43.30648" lon="5.69733">
        <ele>835</ele>
        <time>2013-05-22T09:29:01Z</time>
      </trkpt>
      <trkpt lat="43.30648" lon="5.69733">
        <ele>835.2</ele>
        <time>2013-05-22T09:29:02Z</time>
      </trkpt>
      <trkpt lat="43.30661" lon="5.69722">
        <ele>843.9</ele>
        <time>2013-05-22T09:30:15Z</time>
      </trkpt>
      <trkpt lat="43.30662" lon="5.69721">
        <ele>844</ele>
        <time>2013-05-22T09:30:16Z</time>
      </trkpt>
      <trkpt lat="43.30668" lon="5.69712">
        <ele>845.4</ele>
        <time>2013-05-22T09:31:19Z</time>
      </trkpt>
      <trkpt lat="43.30681" lon="5.69725">
        <ele>847.9</ele>
        <time>2013-05-22T09:31:56Z</time>
      </trkpt>
      <trkpt lat="43.30689" lon="5.6973">
        <ele>850.5</ele>
        <time>2013-05-22T09:32:13Z</time>
      </trkpt>
      <trkpt lat="43.30698" lon="5.69727">
        <ele>855</ele>
        <time>2013-05-22T09:32:32Z</time>
      </trkpt>
      <trkpt lat="43.30698" lon="5.69727">
        <ele>855</ele>
        <time>2013-05-22T09:32:33Z</time>
      </trkpt>
      <trkpt lat="43.30715" lon="5.69725">
        <ele>862.2</ele>
        <time>2013-05-22T09:35:42Z</time>
      </trkpt>
      <trkpt lat="43.30715" lon="5.69725">
        <ele>862.4</ele>
        <time>2013-05-22T09:35:43Z</time>
      </trkpt>
      <trkpt lat="43.30728" lon="5.6974">
        <ele>866.5</ele>
        <time>2013-05-22T09:36:12Z</time>
      </trkpt>
      <trkpt lat="43.30733" lon="5.6975">
        <ele>869</ele>
        <time>2013-05-22T09:36:25Z</time>
      </trkpt>
      <trkpt lat="43.30741" lon="5.69752">
        <ele>869.5</ele>
        <time>2013-05-22T09:36:39Z</time>
      </trkpt>
      <trkpt lat="43.30749" lon="5.69757">
        <ele>870.7</ele>
        <time>2013-05-22T09:36:50Z</time>
      </trkpt>
      <trkpt lat="43.30749" lon="5.69757">
        <ele>870.7</ele>
        <time>2013-05-22T09:36:51Z</time>
      </trkpt>
      <trkpt lat="43.30765" lon="5.69766">
        <ele>870.7</ele>
        <time>2013-05-22T09:37:15Z</time>
      </trkpt>
      <trkpt lat="43.30772" lon="5.69771">
        <ele>870.9</ele>
        <time>2013-05-22T09:37:27Z</time>
      </trkpt>
      <trkpt lat="43.3078" lon="5.69778">
        <ele>873.2</ele>
        <time>2013-05-22T09:37:38Z</time>
      </trkpt>
      <trkpt lat="43.30787" lon="5.69785">
        <ele>879.2</ele>
        <time>2013-05-22T09:37:53Z</time>
      </trkpt>
      <trkpt lat="43.30787" lon="5.69785">
        <ele>880</ele>
        <time>2013-05-22T09:37:54Z</time>
      </trkpt>
      <trkpt lat="43.30804" lon="5.69789">
        <ele>878</ele>
        <time>2013-05-22T09:38:19Z</time>
      </trkpt>
      <trkpt lat="43.30813" lon="5.69789">
        <ele>879</ele>
        <time>2013-05-22T09:38:31Z</time>
      </trkpt>
      <trkpt lat="43.30821" lon="5.6979">
        <ele>880.9</ele>
        <time>2013-05-22T09:38:43Z</time>
      </trkpt>
      <trkpt lat="43.30829" lon="5.6979">
        <ele>881.2</ele>
        <time>2013-05-22T09:38:52Z</time>
      </trkpt>
      <trkpt lat="43.30838" lon="5.6979">
        <ele>882.7</ele>
        <time>2013-05-22T09:39:02Z</time>
      </trkpt>
      <trkpt lat="43.30839" lon="5.69789">
        <ele>882.9</ele>
        <time>2013-05-22T09:39:03Z</time>
      </trkpt>
      <trkpt lat="43.30854" lon="5.6978">
        <ele>894.4</ele>
        <time>2013-05-22T09:39:26Z</time>
      </trkpt>
      <trkpt lat="43.30861" lon="5.69774">
        <ele>899.9</ele>
        <time>2013-05-22T09:39:44Z</time>
      </trkpt>
      <trkpt lat="43.3087" lon="5.6977">
        <ele>895.7</ele>
        <time>2013-05-22T09:39:59Z</time>
      </trkpt>
      <trkpt lat="43.30878" lon="5.6977">
        <ele>892.7</ele>
        <time>2013-05-22T09:40:11Z</time>
      </trkpt>
      <trkpt lat="43.30879" lon="5.6977">
        <ele>892.7</ele>
        <time>2013-05-22T09:40:12Z</time>
      </trkpt>
      <trkpt lat="43.30896" lon="5.69771">
        <ele>902.5</ele>
        <time>2013-05-22T09:41:24Z</time>
      </trkpt>
      <trkpt lat="43.30896" lon="5.69771">
        <ele>902.5</ele>
        <time>2013-05-22T09:41:25Z</time>
      </trkpt>
      <trkpt lat="43.30912" lon="5.69779">
        <ele>901.2</ele>
        <time>2013-05-22T09:41:51Z</time>
      </trkpt>
      <trkpt lat="43.30919" lon="5.69787">
        <ele>904.2</ele>
        <time>2013-05-22T09:42:34Z</time>
      </trkpt>
      <trkpt lat="43.3092" lon="5.69787">
        <ele>903.7</ele>
        <time>2013-05-22T09:42:35Z</time>
      </trkpt>
      <trkpt lat="43.30936" lon="5.69786">
        <ele>918.2</ele>
        <time>2013-05-22T09:43:47Z</time>
      </trkpt>
      <trkpt lat="43.30936" lon="5.69786">
        <ele>918</ele>
        <time>2013-05-22T09:43:48Z</time>
      </trkpt>
      <trkpt lat="43.30952" lon="5.69788">
        <ele>913</ele>
        <time>2013-05-22T09:44:14Z</time>
      </trkpt>
      <trkpt lat="43.30961" lon="5.69787">
        <ele>912.7</ele>
        <time>2013-05-22T09:44:26Z</time>
      </trkpt>
      <trkpt lat="43.3097" lon="5.69792">
        <ele>921</ele>
        <time>2013-05-22T09:44:39Z</time>
      </trkpt>
      <trkpt lat="43.30978" lon="5.69788">
        <ele>929.4</ele>
        <time>2013-05-22T09:44:59Z</time>
      </trkpt>
      <trkpt lat="43.30978" lon="5.69788">
        <ele>929.4</ele>
        <time>2013-05-22T09:45:00Z</time>
      </trkpt>
      <trkpt lat="43.30993" lon="5.69796">
        <ele>940.5</ele>
        <time>2013-05-22T09:46:07Z</time>
      </trkpt>
      <trkpt lat="43.30994" lon="5.69795">
        <ele>940.7</ele>
        <time>2013-05-22T09:46:08Z</time>
      </trkpt>
      <trkpt lat="43.31008" lon="5.698">
        <ele>940.2</ele>
        <time>2013-05-22T09:46:35Z</time>
      </trkpt>
      <trkpt lat="43.31013" lon="5.69809">
        <ele>941.5</ele>
        <time>2013-05-22T09:46:46Z</time>
      </trkpt>
      <trkpt lat="43.31021" lon="5.69814">
        <ele>941.7</ele>
        <time>2013-05-22T09:46:59Z</time>
      </trkpt>
      <trkpt lat="43.31029" lon="5.69817">
        <ele>943</ele>
        <time>2013-05-22T09:47:11Z</time>
      </trkpt>
      <trkpt lat="43.3103" lon="5.69816">
        <ele>942.9</ele>
        <time>2013-05-22T09:47:12Z</time>
      </trkpt>
      <trkpt lat="43.31046" lon="5.69821">
        <ele>946.7</ele>
        <time>2013-05-22T09:47:47Z</time>
      </trkpt>
      <trkpt lat="43.31054" lon="5.6982">
        <ele>948.2</ele>
        <time>2013-05-22T09:48:03Z</time>
      </trkpt>
      <trkpt lat="43.31063" lon="5.69816">
        <ele>952.5</ele>
        <time>2013-05-22T09:50:48Z</time>
      </trkpt>
      <trkpt lat="43.31063" lon="5.69815">
        <ele>952.9</ele>
        <time>2013-05-22T09:50:49Z</time>
      </trkpt>
      <trkpt lat="43.31071" lon="5.69809">
        <ele>948.4</ele>
        <time>2013-05-22T09:52:07Z</time>
      </trkpt>
      <trkpt lat="43.31086" lon="5.69802">
        <ele>951.2</ele>
        <time>2013-05-22T09:52:32Z</time>
      </trkpt>
      <trkpt lat="43.31095" lon="5.69798">
        <ele>954.2</ele>
        <time>2013-05-22T09:52:46Z</time>
      </trkpt>
      <trkpt lat="43.31094" lon="5.69786">
        <ele>957.9</ele>
        <time>2013-05-22T09:53:00Z</time>
      </trkpt>
      <trkpt lat="43.31094" lon="5.69774">
        <ele>960.7</ele>
        <time>2013-05-22T09:53:14Z</time>
      </trkpt>
      <trkpt lat="43.31095" lon="5.69773">
        <ele>960.9</ele>
        <time>2013-05-22T09:53:15Z</time>
      </trkpt>
    </trkseg>
  </trk>
</gpx>